GFSNE_925_rhum_000.txt.gz
RH
88 91 92 86 83 82 83 80 78 85 76 66 70 64 60 60 58 57 60 61 63 64 64 64 65 60 60 60 72 79 81 79 75 73 73 71 68 66
80 84 87 89 87 88 86 83 81 81 86 68 68 66 63 62 65 63 62 63 65 65 63 63 63 59 59 57 68 80 79 77 76 75 73 71 68 65
76 80 81 79 82 86 88 84 85 82 88 76 74 73 68 65 71 72 70 72 67 62 66 70 61 59 57 59 77 75 79 79 76 75 75 72 70 66
70 73 73 74 78 84 88 86 85 83 85 86 77 80 82 75 79 81 80 68 65 65 72 74 76 84 81 69 73 78 82 81 78 78 77 74 71 67
68 72 73 74 77 76 84 88 84 85 88 90 85 82 90 90 84 87 84 70 71 68 83 85 83 79 83 62 77 80 80 82 81 81 79 76 71 68
68 71 75 78 79 77 77 85 90 88 87 91 88 90 92 89 86 91 87 81 75 71 75 71 68 72 78 68 75 76 79 83 83 81 79 75 74 69
70 71 73 76 77 79 84 83 86 92 88 91 91 96 97 97 94 93 93 88 89 75 68 65 62 59 50 63 71 78 81 78 82 82 78 74 73 70
75 75 77 79 81 81 80 79 86 88 87 85 93 96 95 92 96 97 95 95 94 77 68 65 62 53 50 52 53 64 66 69 78 82 80 76 74 74
78 80 81 80 80 81 80 79 88 88 96 97 96 96 91 94 98 99 97 90 83 73 70 59 49 52 48 50 63 64 66 70 77 83 82 76 75 75
80 82 83 84 87 84 83 84 92 95 99 98 100 98 99 94 96 95 97 93 81 79 63 71 53 53 53 55 61 62 64 67 74 84 80 78 78 78
76 77 76 81 82 85 99 98 89 97 98 100 99 100 100 99 100 100 98 90 83 74 60 54 56 54 54 53 53 57 61 69 78 79 75 72 75 78
72 73 85 85 86 89 97 99 97 95 98 100 100 100 99 100 100 98 94 86 94 91 73 59 60 59 73 55 51 54 57 63 59 58 59 61 64 67
60 66 75 89 93 94 96 99 99 100 100 100 100 100 99 99 100 98 95 86 91 87 70 56 73 77 74 74 61 48 50 50 50 51 51 54 58 63
68 68 77 89 94 98 100 99 100 100 100 100 100 100 99 99 95 94 93 88 64 45 71 56 72 78 85 92 87 58 51 45 46 52 52 52 55 59
74 76 84 93 97 99 99 100 100 100 100 99 98 97 97 96 98 99 96 87 74 81 85 68 59 70 76 86 91 89 88 66 63 65 53 52 51 51
80 84 93 96 99 100 100 100 100 100 100 99 100 100 98 100 99 94 96 97 97 96 88 67 69 73 94 93 93 98 94 94 60 53 50 55 53 55
85 84 94 96 97 98 100 100 100 100 100 100 100 100 99 99 100 99 98 98 91 99 100 88 88 85 88 90 98 96 95 92 73 64 61 55 58 60
77 84 96 97 97 97 99 99 100 99 98 98 98 98 98 97 97 98 97 93 83 86 89 97 100 90 79 60 71 94 94 89 68 58 57 66 66 66
82 88 96 97 98 98 100 100 99 98 98 98 98 98 98 97 97 97 96 83 82 78 80 87 88 92 100 98 55 78 91 86 86 85 76 70 71 72
81 86 97 98 98 99 100 100 98 98 98 98 98 98 98 97 97 97 90 82 79 84 90 89 88 86 97 93 100 60 40 56 66 73 75 78 81 86
80 83 94 99 99 100 100 99 98 98 98 98 98 98 98 97 97 89 82 79 82 85 95 89 84 94 84 84 94 78 66 68 80 92 96 98 91 86
80 88 98 99 100 100 99 98 98 98 98 98 98 98 98 97 90 85 81 83 84 82 79 79 72 74 86 98 96 90 88 77 81 92 98 99 97 95
85 92 99 100 100 100 99 98 98 97 98 97 97 97 98 94 84 80 76 78 80 74 75 66 67 70 72 81 84 90 87 93 96 95 84 87 98 99

GFSNE_925_rhum_003.txt.gz
RH
74 76 80 83 86 88 90 86 85 93 78 62 65 67 68 67 64 64 62 58 55 56 60 62 71 84 84 84 76 78 86 84 85 81 79 72 74 73
65 77 77 78 84 86 86 87 89 90 94 71 68 67 67 66 66 64 63 63 57 59 65 63 66 82 81 78 66 68 80 84 81 78 73 74 74 71
53 58 70 74 80 82 82 84 93 91 93 80 76 72 72 70 68 65 67 64 63 68 66 67 71 84 84 76 69 69 81 82 79 75 75 76 75 72
64 67 70 73 76 79 83 83 83 88 90 88 79 77 78 78 73 72 71 73 74 74 75 72 80 94 98 96 79 80 85 81 80 78 78 77 76 74
67 69 73 76 79 78 81 85 84 84 86 88 85 81 84 89 87 84 82 80 84 86 86 83 90 96 97 98 92 91 83 84 84 81 80 80 78 75
71 73 75 79 81 81 84 85 85 87 86 84 86 91 87 96 94 89 95 92 92 93 98 100 100 100 100 99 96 87 86 85 83 83 82 80 80 76
76 74 74 77 79 80 85 90 92 90 89 86 84 83 92 99 97 95 96 96 100 100 100 100 100 100 98 97 94 92 82 82 83 83 83 80 77 75
59 66 76 83 84 85 85 87 91 98 90 88 85 87 84 91 96 98 96 99 98 100 99 100 99 99 95 94 88 80 80 84 83 82 83 80 77 76
65 66 81 68 62 72 81 87 92 93 95 99 96 91 93 91 96 93 94 92 90 99 98 97 100 100 92 84 66 68 69 74 73 77 80 81 79 76
60 62 72 57 66 82 91 92 91 90 91 98 95 90 92 99 100 98 92 98 100 100 100 96 100 97 91 77 70 66 68 70 71 75 78 82 79 77
61 68 51 56 63 73 87 92 92 94 95 97 98 99 93 90 100 100 100 98 96 97 96 94 97 95 84 60 52 68 67 68 70 71 78 81 80 79
71 66 62 60 65 74 84 89 96 93 95 96 98 99 100 99 99 100 99 97 98 95 98 95 98 95 88 59 57 55 60 65 67 78 79 74 71 70
70 75 72 70 79 84 86 94 97 99 98 99 99 100 100 100 99 100 100 99 97 100 98 94 97 89 66 74 61 58 57 61 66 60 63 66 63 61
75 77 74 77 82 84 92 95 96 99 99 99 100 100 100 100 100 100 100 100 96 94 98 95 94 82 84 86 70 61 55 50 51 49 46 47 60 63
73 75 78 80 81 94 92 94 99 100 100 100 100 100 98 99 100 99 99 99 99 100 99 84 46 59 51 76 88 80 70 59 55 58 55 52 49 51
74 79 77 72 87 95 96 97 100 100 100 100 100 100 99 99 98 98 98 98 97 98 98 82 52 47 71 73 76 92 85 87 71 66 54 48 50 53
71 77 72 73 84 90 97 98 98 100 100 100 99 99 98 98 98 97 97 97 97 96 99 95 84 75 76 74 95 94 92 92 70 63 69 67 54 53
82 75 75 78 83 92 96 96 97 99 100 99 99 98 98 98 97 98 97 97 97 96 100 100 100 97 78 59 86 97 88 85 71 69 72 76 72 66
80 85 83 88 82 97 97 98 98 99 100 99 98 98 98 98 97 97 97 98 96 91 98 99 95 88 97 81 47 93 85 82 89 92 77 80 78 75
79 85 89 93 90 98 98 98 98 99 98 98 98 98 98 98 97 97 97 96 91 95 98 92 83 84 90 85 92 44 63 60 65 70 72 75 80 86
86 88 93 90 94 98 99 99 99 98 98 98 98 98 97 97 97 98 96 84 87 91 100 98 89 95 92 89 93 80 63 68 77 87 91 98 91 88
90 91 91 94 94 97 99 99 98 98 98 98 97 97 97 97 97 95 85 87 87 83 85 85 82 85 86 94 96 92 86 84 82 90 99 100 95 96
84 87 96 95 86 97 99 99 99 98 97 97 97 97 97 97 95 85 84 82 83 80 75 68 70 73 80 89 88 94 95 94 91 91 80 88 100 100

GFSNE_925_rhum_006.txt.gz
RH
60 62 72 78 79 81 86 87 91 94 83 71 74 70 68 71 67 64 69 66 66 64 63 64 69 63 67 73 81 80 87 90 91 90 90 91 87 80
64 65 68 72 76 83 86 85 86 90 93 71 70 72 73 70 69 69 69 68 66 65 65 64 66 68 62 64 72 84 95 93 92 91 90 86 82 71
67 62 70 71 77 81 84 87 87 86 91 76 74 75 81 86 82 75 73 70 70 68 66 64 66 66 70 72 74 92 94 91 93 94 86 83 73 74
61 67 76 79 83 84 85 85 85 86 89 88 79 80 80 82 90 88 81 75 78 77 72 65 70 71 86 77 85 94 93 97 96 93 86 77 73 75
67 74 82 80 76 77 84 87 86 86 87 84 82 81 84 84 88 92 95 94 90 85 82 78 78 77 91 97 99 97 98 94 95 94 84 77 76 77
80 69 61 62 68 82 88 89 90 89 87 86 84 78 78 77 85 97 97 98 98 98 96 95 94 100 100 100 98 100 100 100 99 92 85 80 80 79
57 48 54 50 60 77 64 63 79 88 86 88 86 85 86 83 89 86 97 95 98 99 100 99 100 100 100 100 100 99 100 99 99 99 88 82 81 80
50 48 58 60 74 55 52 69 81 91 93 92 90 88 85 85 86 88 90 96 97 93 100 97 100 100 100 100 100 99 98 99 99 92 86 80 80 80
45 46 50 66 68 54 61 70 76 82 86 92 94 87 89 86 92 92 89 94 91 94 100 97 100 100 99 100 99 99 99 99 96 90 84 82 81 79
52 52 62 74 69 69 70 75 76 82 82 88 92 91 93 97 98 99 99 98 100 100 100 98 100 98 100 100 100 99 99 100 99 86 83 82 81 80
58 60 70 73 76 74 74 80 84 84 83 89 93 96 99 99 98 100 97 99 99 99 100 95 100 100 100 100 100 100 100 99 88 78 78 80 81 79
61 66 76 73 71 70 74 82 89 85 92 94 96 96 99 100 100 100 99 98 99 98 98 94 99 96 97 99 99 99 100 92 74 75 76 77 80 79
72 74 71 70 69 73 76 85 94 93 93 96 99 98 100 99 99 100 100 100 100 100 98 94 99 98 97 96 98 98 94 72 73 73 72 79 79 78
83 75 75 72 78 80 75 87 91 94 93 97 98 97 98 99 100 100 100 100 100 96 100 98 97 97 96 95 91 77 65 63 70 73 78 74 73 70
73 79 69 80 71 74 76 83 92 97 98 96 96 96 99 100 99 99 99 99 98 98 99 99 96 98 96 94 86 77 70 63 55 54 53 50 47 55
85 68 77 66 67 70 75 80 91 98 100 98 98 98 100 98 98 98 98 98 97 97 98 97 98 77 88 75 77 90 66 70 66 61 57 60 58 54
62 76 78 74 77 81 80 84 88 95 98 99 99 98 99 98 97 98 97 97 97 96 97 96 88 65 58 62 89 72 79 75 74 75 73 62 52 50
69 77 82 80 84 83 85 91 88 94 98 98 98 99 98 97 97 97 97 97 96 96 96 100 97 80 57 66 84 84 87 83 71 68 75 79 70 58
75 86 83 82 85 87 87 95 92 95 100 99 98 98 98 97 98 97 97 97 97 97 100 100 94 87 86 71 55 96 76 79 82 84 79 83 77 68
80 83 82 84 86 93 92 92 94 97 98 98 98 98 98 98 97 97 97 97 95 98 100 97 89 78 86 78 89 53 96 95 81 65 65 68 73 84
83 80 82 83 89 97 89 94 95 98 98 98 98 97 97 97 97 97 97 93 90 94 100 100 99 96 92 90 84 72 57 63 71 73 83 88 87 91
85 86 85 86 96 94 94 96 96 97 97 98 97 97 97 97 97 97 91 92 90 89 94 99 93 91 90 96 96 93 80 79 77 82 98 97 91 99
92 94 92 95 94 95 97 97 97 97 98 97 97 97 97 97 95 87 90 86 82 81 72 74 76 82 89 91 94 94 91 91 88 88 83 92 98 100

GFSNE_925_rhum_009.txt.gz
RH
65 69 75 74 77 83 86 89 90 93 76 64 67 67 70 74 80 76 78 75 75 71 70 70 69 65 70 70 76 76 80 74 73 78 88 90 93 89
69 62 64 68 78 86 89 91 89 90 92 71 72 73 74 74 75 76 78 74 75 78 78 78 77 77 73 68 75 76 76 74 72 81 92 98 96 93
56 65 69 74 87 86 77 78 81 86 91 77 74 75 77 79 82 81 81 86 88 86 83 79 76 79 78 84 74 78 79 78 70 82 95 100 98 97
62 68 75 84 76 75 66 73 85 88 90 90 80 78 78 77 78 83 86 87 93 90 89 85 83 80 77 88 91 82 76 81 81 84 97 98 99 99
57 67 87 65 74 63 68 91 79 63 70 79 84 82 78 79 83 83 84 84 88 94 89 95 93 94 97 95 96 98 84 89 91 96 100 100 100 98
66 70 54 54 63 67 80 68 59 72 82 84 79 80 76 76 81 91 93 91 93 86 83 84 85 94 98 98 86 99 100 100 100 99 99 98 98 95
40 43 42 46 44 57 79 73 67 75 82 80 81 78 77 78 80 83 85 81 85 95 94 91 93 100 100 98 97 96 100 100 100 100 99 100 100 98
37 41 54 53 51 72 76 73 73 75 79 81 80 82 81 80 83 87 89 92 93 76 96 99 99 100 100 100 100 96 99 100 100 100 100 100 99 98
54 58 60 61 67 80 79 75 79 76 74 76 82 84 83 82 83 87 83 88 95 95 99 95 93 100 98 97 100 100 100 100 100 100 100 100 99 98
60 62 64 68 74 71 70 65 75 74 77 81 87 88 90 90 97 96 94 93 95 97 100 97 95 98 100 99 100 100 100 100 100 100 99 99 100 100
67 68 76 70 70 64 66 72 74 73 72 83 88 87 90 92 95 99 91 93 93 96 99 97 100 100 100 100 100 100 100 100 100 100 100 100 100 96
91 92 75 69 65 67 66 74 96 98 99 94 93 93 93 95 99 100 100 97 97 97 94 98 100 95 98 99 100 100 100 100 100 100 100 100 98 90
90 75 74 72 76 62 68 80 94 88 92 93 95 92 91 93 96 99 100 100 98 97 97 100 99 100 97 96 98 100 100 100 100 100 100 96 85 84
73 83 84 65 63 63 63 61 64 77 88 93 91 91 92 94 98 100 99 99 99 100 99 100 98 97 97 97 96 98 99 100 100 100 95 87 84 91
86 82 64 63 67 69 71 71 80 88 98 96 93 92 96 98 100 99 98 98 98 97 98 99 98 98 97 96 95 97 97 97 97 86 76 76 80 80
97 69 63 68 74 74 80 81 88 86 91 94 95 97 98 94 99 99 98 98 97 96 97 97 97 97 97 97 96 96 96 90 84 79 74 75 73 72
65 68 69 78 81 78 80 80 83 85 90 89 97 97 96 93 96 98 98 98 97 97 96 97 96 92 90 92 94 93 92 91 82 65 61 64 58 52
66 74 80 80 82 83 85 82 87 85 89 96 97 97 96 96 97 97 98 97 97 96 96 96 96 92 69 78 79 85 75 81 82 71 67 68 65 55
76 85 82 82 86 88 86 92 92 90 96 96 98 98 97 97 97 97 98 97 96 96 96 96 90 84 73 70 68 73 74 77 79 85 75 72 73 58
87 84 82 87 89 88 90 93 93 93 95 96 97 97 97 98 97 97 97 96 96 96 96 93 83 84 82 76 81 84 88 78 79 80 77 80 73 66
87 82 84 92 91 92 94 94 95 95 96 96 97 98 98 98 97 97 97 95 92 94 96 99 100 94 83 72 70 73 56 72 70 63 63 75 87 93
84 87 88 89 92 95 95 96 95 95 96 97 98 98 97 97 97 97 96 93 92 91 96 100 100 91 81 87 92 94 80 81 85 94 89 84 88 98
92 93 93 93 93 96 95 96 96 96 97 98 98 97 97 97 96 95 91 87 84 79 77 84 82 89 94 92 97 97 94 91 90 92 96 100 97 99

GFSNE_925_rhum_012.txt.gz
RH
73 60 62 71 74 79 90 92 90 90 77 64 67 66 70 73 75 74 80 82 83 86 89 85 84 88 88 92 89 86 79 86 84 82 77 79 81 87
49 52 58 70 77 86 85 86 79 84 86 63 64 69 73 77 78 78 77 75 71 68 80 89 92 92 93 89 94 92 88 84 81 84 80 80 80 88
48 53 62 68 84 75 83 68 67 80 93 76 59 54 59 72 81 84 80 81 85 85 77 71 86 93 94 94 99 96 99 96 89 90 87 84 79 89
56 63 72 79 58 66 68 57 72 86 66 78 65 66 72 70 75 79 78 81 84 88 86 81 80 84 94 95 97 97 98 100 100 97 93 90 79 89
63 51 41 50 48 49 53 56 70 76 75 76 76 76 74 70 77 78 74 73 80 84 84 93 85 72 73 85 92 96 99 99 99 96 88 95 87 91
52 45 42 44 50 60 56 59 76 84 80 81 80 80 76 73 74 78 74 74 77 78 89 86 90 85 78 80 90 99 98 100 100 98 90 96 98 98
52 53 55 59 61 60 66 69 75 79 73 86 88 78 75 74 80 78 80 76 77 75 82 86 84 91 97 96 98 91 100 98 98 90 97 95 100 100
60 60 62 64 64 69 68 65 64 66 64 71 83 75 71 72 79 83 89 86 87 74 78 84 83 91 88 90 95 99 86 97 92 94 95 99 100 100
66 67 69 70 78 79 73 67 68 64 63 64 72 75 77 79 89 91 81 82 89 82 83 82 81 87 90 87 92 94 99 98 95 91 99 99 100 100
70 73 75 90 78 67 73 92 98 71 69 80 89 98 96 97 95 85 91 93 92 97 94 94 85 90 93 88 88 92 100 98 96 99 100 99 100 100
73 78 92 76 69 73 84 80 71 87 79 75 81 81 80 76 78 89 96 97 96 95 95 97 93 90 99 98 97 96 95 98 100 100 100 100 100 100
84 90 71 66 68 70 60 69 88 72 69 85 93 91 85 82 84 88 100 98 98 96 92 100 98 99 99 97 100 100 100 100 100 100 100 100 100 100
85 67 69 82 83 60 58 72 71 65 88 89 85 90 87 89 97 99 100 100 98 96 93 100 99 100 99 95 99 100 100 100 100 100 100 100 100 100
67 66 84 92 63 60 68 68 67 72 82 90 89 90 87 86 89 99 98 100 99 99 98 98 98 99 98 97 97 98 100 100 100 100 100 100 100 100
68 96 79 67 61 70 71 69 71 80 86 93 89 91 87 90 99 91 96 98 98 98 96 97 100 98 98 97 96 97 97 99 100 100 100 100 100 100
98 97 72 64 67 70 74 78 80 83 86 94 94 92 90 91 95 92 98 99 98 97 96 98 97 98 97 97 97 96 98 96 98 100 100 100 100 100
67 63 68 75 76 76 77 79 82 84 94 94 92 91 91 94 94 91 98 98 97 97 96 96 96 97 96 97 96 97 97 96 98 98 98 95 93 93
56 64 86 79 78 80 85 84 85 85 90 92 94 94 93 96 93 96 98 98 97 97 96 96 96 94 91 94 97 96 96 96 97 95 88 78 79 68
71 90 84 79 80 85 89 88 90 90 94 96 95 95 95 96 96 96 97 97 96 96 96 96 93 95 87 90 91 93 89 93 89 79 61 55 61 55
86 88 82 83 88 92 90 91 93 94 95 96 95 95 97 97 96 97 97 96 96 96 95 94 97 95 89 86 89 92 74 81 76 84 81 73 69 67
82 85 87 90 94 92 92 94 95 95 96 96 95 97 97 98 97 98 97 95 94 95 95 95 100 97 79 65 69 74 87 80 66 65 75 76 84 89
88 90 92 93 95 94 95 96 95 95 95 96 96 98 98 97 98 97 96 95 96 95 95 89 81 82 78 82 94 94 84 82 90 77 72 80 84 98
96 94 94 95 95 96 97 96 96 96 96 96 97 98 98 99 97 95 94 92 88 80 81 85 83 85 95 94 96 98 95 96 96 96 98 92 98 98

GFSNE_925_rhum_015.txt.gz
RH
57 47 51 56 69 75 84 89 78 88 61 44 44 47 61 65 55 44 58 74 82 84 83 84 89 87 86 89 86 84 92 93 96 96 90 85 83 84
43 47 58 61 67 77 68 64 70 67 75 52 51 60 62 60 52 52 48 51 60 67 72 71 80 86 91 92 93 93 98 99 96 99 98 95 91 89
49 56 61 57 45 48 57 57 55 53 65 56 61 68 64 58 59 61 58 52 66 75 71 72 71 86 93 95 95 92 93 97 99 99 99 100 98 94
52 63 53 46 44 44 47 51 58 61 63 72 82 67 62 65 72 74 70 72 68 67 68 78 73 63 64 89 88 84 82 89 97 98 97 100 95 95
54 56 50 50 50 53 61 64 66 66 70 74 70 68 70 71 68 70 73 71 73 72 68 69 80 87 75 74 75 93 93 91 95 96 95 95 97 99
56 57 56 56 57 63 64 66 68 71 70 70 69 66 65 66 68 66 70 69 71 72 71 75 72 74 78 90 88 91 93 92 92 86 93 98 97 97
60 59 60 64 68 67 68 68 72 70 72 72 70 70 67 64 65 66 70 72 76 87 72 68 74 77 90 79 78 94 97 93 89 88 95 100 99 99
64 64 64 67 68 72 69 66 66 77 81 94 78 71 67 71 76 76 84 81 94 74 68 79 79 82 80 74 73 77 90 92 94 95 95 98 100 100
65 66 70 70 78 79 75 72 89 72 61 66 74 84 85 73 88 96 97 98 82 75 82 86 81 91 90 86 84 77 85 91 86 89 90 96 99 100
64 67 70 83 73 65 67 99 66 60 64 76 69 69 76 84 78 76 81 85 88 84 83 97 96 88 82 95 92 92 90 80 82 93 94 96 96 96
66 67 91 68 60 68 99 72 65 65 70 66 66 69 73 72 75 87 94 90 87 79 81 95 87 96 98 93 91 88 93 98 99 98 99 99 99 100
75 84 65 59 64 96 69 64 67 70 78 74 76 76 79 82 82 83 96 97 93 90 80 97 83 89 97 97 91 91 96 91 89 90 99 100 99 100
92 71 65 63 98 69 58 61 69 68 73 75 78 81 82 80 84 84 99 99 97 93 84 96 95 91 94 92 92 86 100 100 100 100 100 100 100 98
76 69 75 98 64 59 59 64 65 67 77 84 84 82 83 85 86 90 95 100 100 99 99 99 95 89 94 94 93 98 99 100 100 100 100 100 100 98
71 88 75 53 52 64 64 63 69 79 85 89 86 85 84 86 91 95 91 100 95 98 99 97 99 97 97 94 94 94 98 99 100 100 100 100 100 100
97 61 56 54 66 70 66 72 77 82 86 91 91 90 87 88 89 87 95 92 96 90 98 97 97 98 93 96 96 93 98 97 99 100 100 100 100 100
57 60 60 74 76 69 71 75 78 82 88 88 91 92 90 88 87 87 97 96 94 92 93 98 96 97 98 98 93 96 96 98 99 99 99 99 100 100
62 67 75 80 76 74 77 81 83 82 89 93 93 92 92 93 93 95 97 97 95 93 94 97 97 96 96 97 98 95 97 96 98 99 99 94 97 99
70 79 79 79 80 81 84 87 89 89 94 95 95 94 94 93 95 95 96 96 93 94 95 97 92 88 93 92 97 98 96 98 98 97 98 96 94 98
79 85 85 83 84 86 89 91 93 93 94 95 95 95 95 96 95 96 95 94 94 93 89 92 92 93 87 89 86 98 97 95 91 83 84 83 77 81
84 84 84 87 89 91 92 94 95 95 95 96 95 96 97 97 96 96 94 90 86 86 86 88 98 99 76 74 75 81 98 74 68 70 73 64 66 71
85 88 89 90 92 94 95 96 95 94 95 95 96 97 98 100 96 93 88 85 84 84 85 92 86 84 91 77 80 82 88 95 73 62 70 69 76 76
93 93 92 94 95 96 96 96 95 95 96 96 97 98 100 95 88 80 75 77 83 82 85 85 93 95 95 92 87 86 92 92 91 93 99 97 97 81

GFSNE_925_rhum_018.txt.gz
RH
30 34 35 38 43 45 48 52 59 65 57 47 42 32 29 33 36 55 56 50 49 55 55 53 60 70 81 83 82 82 86 89 93 93 95 96 84 99
32 36 38 40 45 41 39 37 42 44 52 41 41 40 40 43 51 53 49 49 56 57 58 52 55 71 70 65 87 90 90 90 89 94 93 95 97 71
35 37 39 45 41 38 38 38 40 43 51 50 50 49 46 47 48 46 48 49 52 52 54 66 60 64 73 84 75 73 87 92 97 98 96 98 100 98
37 39 40 40 42 41 40 42 47 48 52 67 55 51 51 49 50 51 49 49 49 50 50 54 60 64 70 74 83 88 84 82 79 92 91 93 98 98
40 42 44 46 45 44 48 50 50 56 60 60 61 60 58 55 53 55 56 51 48 51 54 53 55 57 62 73 73 68 82 93 73 72 86 87 90 97
45 48 48 47 48 53 54 52 64 65 59 62 69 66 62 60 56 55 53 53 59 62 63 64 66 72 72 62 74 77 89 81 84 92 89 94 92 84
49 48 48 51 58 58 61 70 76 63 70 73 72 61 54 53 56 58 67 60 62 66 69 73 75 77 70 66 67 73 75 74 82 90 92 83 85 90
48 48 47 48 50 59 65 59 58 69 71 84 66 59 58 60 65 60 65 73 79 67 72 70 64 66 70 71 72 82 85 86 84 88 89 87 89 88
49 48 48 47 56 68 57 56 64 88 81 63 61 62 70 66 68 76 82 82 79 70 70 74 74 77 74 80 87 88 87 93 93 93 93 79 84 87
49 49 49 56 66 57 56 67 93 63 55 55 56 66 83 91 75 75 83 87 84 79 73 95 77 77 76 75 86 96 96 88 98 97 95 96 88 88
50 51 64 65 54 55 73 98 78 63 53 55 67 67 63 63 68 82 92 87 87 74 73 84 85 95 99 84 70 74 86 99 100 99 99 100 100 99
58 64 58 56 55 76 86 56 72 63 65 73 68 64 68 72 71 75 94 95 92 88 73 94 89 82 85 68 93 79 84 81 93 96 100 100 100 100
78 68 60 59 72 58 53 56 63 61 66 67 68 74 73 73 75 80 87 98 94 91 80 89 94 88 90 85 72 76 80 92 93 100 100 99 100 100
73 65 68 78 54 53 55 62 58 62 68 73 77 76 77 79 82 85 88 93 96 98 96 100 97 95 90 86 82 72 79 97 100 100 100 100 100 100
64 73 74 54 55 57 63 58 61 68 75 82 83 83 82 84 88 90 91 93 93 94 99 100 99 98 96 90 86 82 98 99 100 100 100 100 100 100
87 86 55 53 54 59 60 62 66 70 79 88 90 90 89 85 86 85 94 92 94 90 98 97 96 99 92 92 94 93 99 98 99 100 100 100 100 100
76 60 55 56 64 64 64 66 68 74 88 92 93 92 89 87 89 92 94 95 95 93 95 98 96 96 98 98 93 96 97 98 99 100 99 99 100 100
63 59 62 70 70 68 69 72 77 85 93 94 93 93 93 93 93 94 97 97 94 93 93 96 96 96 96 96 98 96 97 98 99 100 100 95 98 100
63 69 73 72 72 74 76 80 91 93 96 95 95 94 95 94 95 95 96 95 93 94 94 95 87 91 93 91 95 98 95 98 98 98 97 88 94 100
70 75 75 75 76 79 83 93 93 93 94 95 95 95 96 96 95 95 95 94 85 80 81 86 88 92 94 94 92 97 97 98 95 94 96 99 99 99
75 75 77 79 82 84 93 95 95 95 95 96 95 95 95 96 90 87 82 78 77 77 79 83 96 95 83 93 92 93 98 97 97 95 98 95 92 95
77 82 82 84 86 94 96 95 95 95 95 95 95 95 96 91 82 72 67 73 77 75 76 89 97 93 82 72 82 85 86 95 96 83 87 72 63 74
85 87 88 89 94 96 96 96 96 95 96 96 96 96 93 86 72 67 83 94 95 94 94 93 94 88 80 78 80 81 82 76 78 92 100 96 65 57

GFSNE_925_rhum_021.txt.gz
RH
27 30 31 34 37 38 44 44 47 53 46 38 38 36 41 41 42 45 45 49 51 52 52 48 54 63 57 60 67 72 72 64 72 82 85 88 90 95
28 31 34 35 37 40 43 41 41 44 50 41 42 45 47 52 47 47 47 48 48 44 45 48 51 51 54 61 66 68 68 69 75 67 72 79 85 91
31 33 35 36 38 39 42 42 44 44 51 48 48 55 55 50 51 52 52 53 49 45 43 46 49 48 49 55 59 62 63 65 68 82 77 82 91 92
34 36 38 39 42 44 44 45 47 49 51 59 59 57 52 55 58 57 54 52 50 49 48 46 45 48 52 54 57 63 69 70 76 68 75 79 81 92
38 40 42 44 45 45 47 51 52 55 63 67 64 57 58 64 62 51 44 45 50 49 48 51 51 54 61 62 64 66 67 77 75 81 87 94 91 84
46 46 46 45 45 48 52 56 63 71 72 69 62 65 66 66 57 52 51 56 60 54 53 52 54 56 58 60 75 85 79 72 65 78 82 83 94 93
51 48 44 44 46 48 49 57 71 83 65 65 78 83 87 62 59 56 58 60 61 62 63 65 66 68 67 64 60 60 60 64 72 78 81 83 86 93
52 47 45 44 43 46 54 56 61 62 61 79 87 93 71 58 56 62 67 75 82 66 68 68 65 66 66 65 63 66 67 71 73 88 92 90 91 90
49 47 46 45 49 60 61 61 61 60 77 74 73 75 59 58 70 82 90 82 73 68 72 78 73 80 77 73 68 65 70 77 81 84 87 89 94 88
50 49 49 54 62 62 60 89 89 83 68 55 60 58 60 75 92 80 71 82 87 81 75 86 89 76 79 75 78 72 73 73 77 75 86 95 95 96
54 54 58 62 60 61 79 97 72 60 58 57 62 60 59 60 63 73 91 90 87 79 75 77 84 96 79 78 75 70 95 99 98 86 87 94 96 96
62 72 63 56 60 77 79 58 66 62 85 75 66 64 64 67 67 72 88 94 91 91 69 83 85 85 91 76 80 88 74 74 88 82 92 94 92 94
83 72 66 58 75 74 52 57 59 77 70 65 66 70 73 74 74 77 84 96 94 92 82 85 94 91 89 91 74 76 83 85 89 97 99 99 99 100
79 69 63 92 66 51 54 54 59 61 64 70 78 80 79 80 82 85 88 92 95 95 94 98 95 96 94 93 89 76 78 82 100 99 100 100 99 99
65 66 95 58 52 54 56 57 59 65 72 88 90 84 83 86 89 91 94 96 94 93 95 99 100 98 99 95 91 86 89 93 100 100 100 99 100 100
87 95 56 54 54 57 61 62 65 68 76 90 93 91 88 90 93 95 96 95 96 91 98 98 96 95 97 94 94 92 94 99 98 99 100 100 100 100
74 63 58 60 65 66 65 66 69 78 94 93 93 93 92 92 93 95 96 97 96 96 94 96 95 97 97 99 97 97 98 98 99 99 100 99 100 100
63 62 65 70 71 70 70 72 83 87 92 94 94 94 94 94 94 95 98 98 96 95 95 96 96 94 96 97 99 98 98 99 99 99 100 97 98 100
64 69 73 72 73 74 77 90 93 92 96 96 96 95 95 95 93 93 88 92 88 85 89 97 96 95 96 95 96 98 98 99 99 98 100 99 98 100
72 75 75 75 77 81 93 94 94 93 94 95 95 95 95 95 94 87 84 84 84 84 84 88 95 95 96 96 96 98 97 98 96 97 98 100 100 100
76 78 78 79 84 94 95 95 96 95 95 96 95 96 96 97 95 96 95 93 93 86 92 94 96 93 96 96 94 95 99 98 98 97 97 93 96 98
82 82 82 86 96 96 96 96 95 94 95 96 96 97 97 97 96 96 96 95 96 97 96 98 89 85 91 93 95 96 97 99 98 98 95 87 92 97
84 87 89 95 97 97 97 96 96 96 96 97 97 97 97 96 97 98 98 97 98 98 97 97 89 82 84 85 93 96 97 98 98 97 95 74 81 91

GFSNE_925_rhum_024.txt.gz
RH
25 27 29 34 36 37 40 44 55 62 55 45 44 44 46 47 49 56 51 49 48 48 53 48 50 48 50 49 50 52 54 54 56 70 68 63 74 72
27 30 33 37 39 40 42 45 48 51 60 47 48 50 48 53 57 52 51 53 54 56 52 48 48 51 48 49 48 51 46 49 55 56 59 58 62 61
31 36 39 40 42 44 46 49 50 51 59 55 52 52 64 59 56 56 57 59 60 54 46 43 42 45 47 50 47 48 54 56 56 56 57 61 55 76
41 45 46 46 48 48 50 49 52 54 55 61 63 68 62 62 59 60 65 63 62 52 47 44 51 57 50 51 56 55 52 56 61 61 75 72 78 69
51 53 54 53 52 50 48 51 52 55 66 76 74 70 68 62 65 70 72 62 56 51 45 51 51 52 54 54 54 56 60 61 67 76 73 75 71 74
60 60 59 56 52 50 50 50 54 63 72 73 82 92 68 69 75 96 66 58 53 53 59 59 61 60 57 59 60 62 62 69 66 65 78 84 65 78
64 64 60 52 51 48 49 54 60 59 75 97 91 82 78 78 75 65 60 56 62 64 67 77 63 65 66 66 65 66 67 66 64 66 74 77 75 77
67 62 57 53 50 52 55 54 56 75 83 96 94 80 60 59 66 71 69 74 85 75 69 68 69 72 73 75 72 73 74 80 73 64 70 79 82 83
63 60 58 55 57 61 67 70 96 87 76 68 64 62 62 84 96 87 88 92 89 79 78 79 75 76 80 76 69 67 71 77 70 66 67 70 75 79
62 62 62 62 69 65 70 91 95 87 72 67 60 63 79 70 70 70 73 81 84 79 75 92 76 90 74 75 77 72 69 66 68 93 96 90 76 78
63 65 70 73 68 64 74 98 87 72 72 60 78 76 61 60 62 68 91 93 86 77 75 82 82 88 76 80 79 74 82 97 87 98 90 100 94 90
67 81 79 67 59 73 80 66 73 64 71 88 67 66 67 72 72 76 88 94 92 89 69 82 84 88 90 70 79 84 75 79 79 80 84 83 83 88
93 86 82 64 85 74 59 60 59 66 76 66 68 74 80 87 84 88 94 98 94 92 82 86 94 92 93 91 88 83 99 90 91 92 94 99 100 98
78 72 69 88 62 59 58 58 62 62 67 72 80 87 83 88 91 93 95 97 98 98 96 100 95 96 94 92 92 76 78 85 98 99 100 99 99 100
72 75 88 64 58 58 61 61 63 70 78 92 91 89 92 95 98 97 97 95 95 96 98 98 99 98 98 96 94 87 84 86 97 100 99 100 100 100
92 96 70 60 60 64 67 68 71 79 92 95 94 94 96 95 96 97 97 95 96 95 86 93 94 98 98 91 98 93 94 97 97 100 100 100 100 100
70 71 63 67 73 72 71 72 76 88 96 95 95 94 93 94 92 92 97 95 93 94 92 94 94 96 95 99 96 95 98 99 99 100 100 99 100 100
67 67 73 76 77 76 80 88 89 92 95 96 95 95 95 95 94 94 96 95 94 94 94 96 96 90 91 97 98 97 98 99 99 100 100 96 98 100
69 77 80 81 80 84 92 94 94 95 97 96 96 96 96 95 92 93 96 95 93 94 96 98 96 94 94 95 96 99 99 99 99 98 100 98 98 100
78 85 84 82 86 94 95 95 95 95 95 96 96 96 96 96 94 94 95 95 94 94 95 95 96 96 96 96 96 98 98 98 99 98 98 100 100 100
83 83 84 89 96 96 96 96 97 96 94 97 96 96 96 97 94 94 96 92 94 95 95 94 96 99 96 96 95 95 99 99 99 99 99 98 97 97
83 87 91 94 96 97 97 97 96 96 96 97 96 97 98 98 96 96 96 96 95 97 97 87 86 96 96 94 96 96 97 99 99 99 95 89 96 97
91 95 94 96 97 98 98 97 97 97 98 98 98 97 97 96 98 99 98 98 98 98 98 94 84 90 97 97 94 96 96 97 87 94 100 100 100 100

GFSNE_925_rhum_027.txt.gz
RH
27 29 30 33 40 42 44 49 55 68 58 50 50 49 52 53 50 54 58 55 49 51 52 52 53 57 55 50 47 46 52 50 50 52 56 52 48 50
32 35 38 42 47 48 49 51 53 57 69 52 51 52 52 54 61 60 57 57 55 52 54 55 55 72 52 51 49 46 52 54 55 51 50 44 51 62
36 43 50 52 55 56 56 56 58 58 62 55 53 54 59 66 62 63 66 60 59 60 61 61 60 55 53 50 46 67 57 50 51 55 66 72 72 72
44 52 57 61 62 62 60 58 56 55 57 60 60 69 71 66 66 74 66 65 71 87 64 58 55 50 50 48 52 54 53 54 53 51 51 49 52 68
50 58 62 66 67 65 62 58 57 57 66 79 86 74 67 86 83 76 86 73 75 57 52 51 48 49 53 57 64 64 55 58 60 58 60 57 59 71
52 56 62 68 68 62 58 57 62 64 63 64 69 89 76 80 85 71 56 56 62 66 60 59 61 62 63 58 57 61 62 63 62 59 57 62 74 75
52 59 64 65 60 57 57 58 61 66 88 96 83 92 88 64 60 60 63 67 76 71 72 71 77 85 69 66 67 68 68 68 71 72 73 68 68 76
56 60 64 65 62 59 60 61 64 69 76 93 95 86 67 65 66 66 77 92 89 71 76 86 73 72 73 74 73 69 77 74 61 67 64 76 75 81
57 61 65 66 68 75 76 70 75 83 89 78 74 74 73 70 82 96 93 89 86 80 78 82 76 75 77 76 66 70 67 63 68 83 84 84 69 64
60 63 67 74 85 71 72 77 97 94 79 73 70 72 88 89 70 69 76 87 90 80 73 86 75 77 74 75 75 71 68 80 92 90 86 90 79 81
66 69 80 77 70 62 74 98 96 87 65 63 81 73 63 62 66 85 93 93 86 76 73 79 82 84 80 81 79 76 80 78 83 98 90 85 82 85
82 90 77 64 58 85 85 78 75 64 83 91 67 67 71 75 76 84 95 94 92 90 68 85 90 89 91 72 74 79 78 83 78 80 85 80 78 78
88 79 74 68 97 64 62 61 64 73 76 70 72 76 80 82 81 89 98 98 94 92 82 92 94 92 93 90 86 84 89 89 94 88 84 88 87 86
78 74 80 94 61 60 62 64 66 70 72 79 84 85 84 90 94 97 98 98 99 98 97 99 96 97 95 91 90 80 79 85 95 99 100 100 100 98
80 84 83 64 62 66 69 68 70 79 95 94 89 88 92 96 98 97 98 97 98 96 95 97 98 97 97 94 94 90 89 87 98 99 99 100 100 100
93 83 66 63 69 71 73 73 80 92 94 95 94 93 95 96 96 97 97 95 96 88 85 95 97 98 96 97 100 92 90 96 96 100 100 100 100 100
68 70 67 74 78 76 74 77 83 89 94 94 95 95 94 95 94 95 97 96 94 93 91 92 92 88 90 99 98 94 96 97 99 100 100 99 100 100
70 71 79 82 81 79 82 88 89 89 94 96 95 95 95 94 95 94 94 96 95 93 94 96 96 89 81 86 98 96 98 98 99 100 100 97 97 100
75 82 84 83 84 86 91 94 94 93 96 96 97 96 96 95 91 92 94 94 92 94 96 98 97 96 96 95 94 99 98 98 100 98 99 99 97 100
83 85 86 86 89 94 95 95 95 95 95 97 96 97 97 96 94 94 94 95 95 94 92 92 97 97 96 96 96 97 99 99 99 99 99 100 100 100
84 86 88 93 96 96 96 96 96 96 96 97 96 97 97 97 95 95 95 89 93 95 94 94 98 99 97 90 95 94 98 100 100 100 100 96 96 96
88 92 94 96 97 98 98 98 97 96 97 97 97 98 98 98 97 97 96 96 95 97 97 91 97 96 97 93 96 96 97 100 100 100 100 100 98 97
96 98 97 98 98 99 99 98 98 98 98 98 99 99 100 97 98 98 99 98 98 98 96 90 95 95 98 97 93 96 96 98 98 98 100 100 100 100

GFSNE_925_rhum_030.txt.gz
RH
30 34 36 40 47 51 54 58 66 76 64 54 56 54 51 52 53 53 54 60 58 57 54 53 53 54 53 53 52 60 68 54 70 54 48 47 46 48
35 40 45 50 57 59 61 64 65 67 75 60 58 54 54 56 58 59 63 64 64 58 58 56 56 58 68 66 67 75 76 62 50 46 51 60 61 58
41 46 51 56 61 64 68 69 69 67 72 62 59 60 65 70 69 70 70 70 75 67 60 53 52 56 59 55 62 59 49 49 50 58 62 67 59 58
44 49 53 59 61 67 70 71 70 68 66 72 79 75 67 63 65 70 86 84 76 68 55 54 55 57 53 51 52 53 52 54 51 55 58 56 51 50
47 51 54 58 64 68 71 72 66 64 69 67 67 64 64 75 81 80 79 57 57 53 51 52 54 56 57 60 62 75 71 80 85 66 63 58 57 60
47 50 54 58 64 70 67 64 71 67 68 72 80 89 82 72 96 68 61 59 61 60 62 67 67 61 60 60 62 64 62 61 60 58 57 57 57 55
50 52 57 62 64 61 62 66 68 82 95 96 76 75 94 69 66 65 68 67 67 78 88 67 67 72 75 70 67 64 65 67 66 71 72 76 68 68
58 59 61 67 66 65 66 65 68 68 69 78 96 78 71 70 71 70 79 94 87 67 66 72 73 73 74 74 72 71 68 72 77 80 73 84 71 69
63 64 67 70 77 83 78 65 70 80 95 77 78 75 72 74 92 95 85 84 85 79 82 82 75 75 73 73 70 70 69 68 68 70 88 83 79 76
67 69 71 85 78 64 65 84 97 85 83 70 65 77 92 79 71 82 92 95 94 83 74 91 78 79 77 77 75 74 75 74 73 75 81 81 77 75
70 73 85 75 66 67 96 83 79 74 62 72 82 70 66 66 75 94 93 92 86 74 73 82 83 85 84 84 81 77 77 78 76 76 84 98 99 98
82 94 80 68 67 87 64 68 72 69 95 94 70 69 75 78 79 88 97 94 92 89 68 86 89 88 92 72 73 72 72 77 76 74 73 75 80 83
81 73 74 79 80 61 62 69 73 82 86 74 78 82 83 82 84 92 98 98 94 91 82 93 93 91 93 91 81 76 83 86 90 87 85 92 83 80
77 83 94 79 64 65 69 72 73 75 78 86 87 84 86 92 94 97 97 98 99 98 96 99 96 96 94 91 87 71 78 84 90 97 98 99 99 98
86 77 74 68 67 73 75 74 72 80 90 93 89 88 91 96 99 98 97 96 97 95 97 98 99 97 97 94 92 86 87 83 90 98 99 99 98 99
83 81 71 68 73 76 76 76 79 82 88 94 94 93 93 92 92 95 97 94 96 88 85 94 97 99 96 94 97 91 93 96 91 98 99 100 100 100
69 74 72 77 82 80 79 80 83 86 91 92 94 94 92 91 92 91 97 95 94 93 92 89 93 97 93 93 95 94 94 95 99 100 99 99 100 100
76 76 82 85 85 84 86 89 89 88 93 96 96 95 95 94 94 92 92 95 94 92 95 95 97 92 84 78 98 96 98 98 99 100 100 98 96 100
81 87 89 88 89 90 92 93 93 93 96 96 97 96 96 96 92 93 92 93 91 94 95 97 96 96 94 95 80 98 98 99 99 98 100 99 97 98
88 90 91 92 92 95 95 96 96 96 96 98 96 97 97 97 95 93 93 95 94 94 93 94 96 96 96 96 96 96 100 99 99 98 99 100 100 98
90 92 93 95 96 97 97 98 98 97 96 97 97 98 97 97 94 94 96 91 91 94 94 93 98 99 97 86 90 94 99 100 100 99 100 97 97 94
93 96 96 97 98 99 99 99 98 97 97 98 97 98 98 98 97 97 97 96 96 98 97 96 97 96 96 95 96 97 98 100 100 100 100 100 98 97
99 99 99 99 100 100 100 100 99 98 98 97 98 98 98 97 99 99 99 98 98 98 95 94 97 96 97 98 93 96 96 98 98 97 99 100 100 100

GFSNE_925_rhum_033.txt.gz
RH
31 36 42 46 51 54 57 65 74 81 69 56 59 60 60 59 58 58 58 59 57 58 58 58 54 55 58 61 62 69 66 67 68 66 64 73 67 59
35 42 45 49 53 56 58 64 72 77 85 65 65 64 63 66 65 63 64 64 64 60 57 58 65 60 56 57 53 54 53 76 75 79 79 75 68 58
43 46 47 50 54 58 60 66 76 78 81 71 68 69 71 62 61 62 65 68 71 73 73 66 53 52 54 60 67 70 65 64 64 71 84 68 62 67
47 47 48 50 56 60 64 73 76 76 78 84 85 71 64 64 67 71 80 89 96 76 55 52 51 51 52 56 69 70 68 68 66 62 58 57 61 67
48 49 51 55 61 65 68 75 78 76 83 80 73 71 72 78 81 94 85 70 61 56 54 56 57 59 60 70 70 71 74 74 77 76 74 83 83 75
53 56 58 60 64 70 68 66 79 72 74 80 82 82 77 89 84 65 60 61 63 64 66 68 70 66 62 61 61 62 65 68 65 62 63 67 64 61
63 62 62 68 66 63 64 65 69 80 88 82 78 94 77 65 64 67 69 68 77 86 87 73 68 67 68 68 68 67 67 68 66 67 68 72 72 72
63 62 64 70 69 68 68 67 67 64 85 97 86 76 71 70 71 73 88 89 82 70 71 81 76 74 75 75 73 73 72 69 75 88 86 81 82 82
65 66 70 73 80 85 82 69 86 95 75 73 76 75 72 74 98 95 89 91 85 78 86 91 78 77 74 73 72 73 73 72 71 75 84 84 79 76
67 70 74 85 87 69 80 99 80 75 73 68 67 79 96 81 71 82 96 96 92 80 73 92 79 80 77 78 78 77 78 76 73 76 79 81 80 78
70 82 87 82 70 73 90 77 71 74 66 74 90 74 68 72 79 96 92 92 84 73 73 80 81 84 84 84 80 77 76 74 68 66 70 78 89 86
83 79 75 69 67 86 67 69 76 72 95 95 72 75 80 83 80 90 98 94 91 89 67 86 89 89 91 71 69 71 79 78 75 74 75 73 72 80
66 78 80 78 79 64 64 72 78 88 84 77 82 84 85 83 86 91 97 98 94 92 82 93 93 90 91 89 77 76 78 84 83 80 80 79 75 73
76 81 86 78 67 67 72 76 75 75 80 84 89 86 87 90 93 97 100 100 99 97 96 99 96 96 93 90 86 72 78 86 94 98 98 98 98 98
78 72 73 72 69 75 79 77 76 84 89 94 90 90 92 96 98 96 95 95 95 94 95 97 100 98 97 94 92 86 92 85 90 97 98 98 97 98
78 77 75 71 76 78 80 80 83 85 88 93 94 94 95 94 94 93 96 95 96 87 83 87 97 98 96 94 96 93 93 95 92 98 99 99 99 99
72 78 76 81 84 84 82 83 84 88 93 94 96 95 94 93 93 92 96 96 94 90 89 91 92 96 94 94 95 93 95 96 99 99 99 98 100 100
80 81 86 88 88 88 89 89 91 91 94 97 97 97 96 95 94 92 94 94 94 91 93 94 96 92 78 71 93 96 96 98 99 100 100 98 98 100
86 90 92 91 92 93 94 95 95 95 98 99 98 98 96 97 93 93 93 93 90 90 94 97 97 95 93 92 82 91 98 98 99 98 99 98 98 100
91 93 94 94 95 96 96 97 97 97 98 99 97 98 98 98 96 93 93 95 95 93 92 88 94 96 97 96 96 94 100 98 98 98 98 99 98 100
93 94 95 97 97 98 98 98 99 98 97 97 98 98 98 98 95 95 96 92 92 94 93 91 98 99 96 87 88 93 98 99 100 98 98 98 89 89
96 98 98 99 98 99 100 100 99 99 98 98 98 99 98 99 97 97 97 96 95 97 98 94 95 94 95 96 96 96 96 99 100 99 100 99 97 96
100 100 100 100 100 100 100 100 100 99 98 98 98 97 98 97 99 100 100 98 98 99 96 94 93 93 96 96 95 95 95 95 98 97 98 100 99 99

GFSNE_925_rhum_036.txt.gz
RH
34 36 41 45 47 51 54 59 74 79 63 52 60 61 65 67 65 64 65 65 61 59 57 55 55 55 59 58 65 78 76 72 77 73 68 66 68 62
41 45 46 47 49 51 54 60 64 79 85 62 67 69 68 71 73 65 62 64 64 64 63 61 63 60 65 68 55 56 55 68 69 70 65 62 75 77
46 47 48 48 50 53 57 62 69 78 86 75 71 71 78 71 68 70 72 75 76 75 72 68 63 60 59 57 57 65 65 68 69 72 72 71 76 78
49 50 53 55 57 59 61 67 74 79 84 87 84 74 70 72 75 82 89 86 84 74 61 59 56 54 56 58 64 72 66 61 68 68 69 70 64 68
55 58 61 62 62 65 70 75 76 80 85 80 74 74 76 78 93 84 73 63 58 58 58 59 61 62 65 73 82 82 79 82 69 67 71 72 74 73
64 63 58 60 69 71 72 69 72 72 74 80 78 83 96 79 68 64 63 63 67 68 73 72 70 67 64 63 63 62 63 65 65 65 66 73 71 74
64 59 62 70 74 71 69 71 72 81 84 95 93 81 73 69 69 68 70 74 86 78 72 72 72 70 70 71 71 69 70 70 69 72 74 76 75 74
65 64 67 72 75 73 72 70 70 78 98 86 81 76 72 72 71 78 95 88 85 72 73 86 81 80 79 78 75 74 72 70 70 75 81 82 82 85
65 66 70 76 79 81 82 83 86 90 73 69 73 74 75 78 98 94 87 90 87 82 87 90 80 78 74 73 71 73 75 75 75 78 77 83 79 78
65 68 74 81 81 77 82 98 90 78 74 72 72 82 97 84 76 84 97 97 92 80 74 89 76 78 76 76 76 76 76 76 75 79 82 81 85 76
68 72 80 76 74 77 96 86 75 75 70 75 89 79 72 76 82 94 93 92 85 75 75 80 81 84 83 82 79 78 75 72 72 77 80 85 86 82
73 68 73 73 70 87 67 72 77 74 92 96 74 75 80 84 84 86 93 95 91 89 67 89 89 90 90 68 67 71 79 79 82 82 82 80 77 79
68 73 82 74 77 66 67 74 80 87 85 78 83 84 87 86 89 94 98 98 95 91 82 94 93 90 92 90 76 77 77 81 85 88 88 88 91 87
75 83 78 76 70 70 74 79 78 78 83 86 89 88 89 94 96 99 100 100 100 97 96 99 96 96 94 90 86 75 78 86 94 99 99 99 99 98
80 73 77 75 72 78 82 81 80 86 88 95 92 91 94 98 100 99 96 96 97 95 94 96 99 97 98 94 93 89 93 88 88 98 98 98 98 98
79 84 79 73 78 81 83 82 86 86 91 94 95 96 98 96 97 96 98 97 97 88 84 87 97 99 96 94 97 93 92 96 94 98 99 99 100 99
75 81 78 84 87 86 85 86 87 89 94 96 97 97 96 95 95 95 97 96 95 90 89 87 92 96 95 96 95 88 94 96 96 99 99 98 100 100
83 84 89 91 91 90 91 91 92 93 96 98 98 98 97 97 96 95 97 96 94 91 92 92 96 93 81 71 95 98 92 97 98 99 100 98 98 100
89 94 94 94 94 95 96 96 96 96 99 100 99 98 97 96 95 95 95 95 91 90 92 93 96 95 92 92 72 82 98 97 98 96 99 98 99 100
94 96 96 96 97 98 98 97 98 98 98 100 98 97 98 98 96 94 95 95 94 93 90 87 93 96 96 96 97 96 99 99 97 97 98 97 100 100
96 97 98 99 100 99 99 99 99 97 97 97 98 98 98 98 96 96 97 92 92 93 93 91 96 99 92 88 86 88 96 97 100 99 98 97 97 95
99 100 100 100 100 100 100 100 98 98 98 98 98 98 98 100 97 98 97 96 95 96 97 95 85 88 92 96 95 95 95 93 90 97 100 100 98 98
100 100 100 100 100 100 100 100 100 100 99 98 100 99 99 98 99 100 99 99 98 99 98 94 89 87 87 94 92 94 92 96 98 96 98 100 99 100

GFSNE_925_rhum_039.txt.gz
RH
34 39 42 47 50 56 58 59 58 57 52 42 45 49 58 62 61 62 63 62 65 65 65 63 62 62 67 70 70 69 69 74 76 81 74 74 71 78
45 47 49 51 55 58 61 63 64 63 65 50 56 60 62 62 64 66 63 69 69 68 65 63 61 59 62 69 68 66 64 64 64 69 64 66 65 62
48 52 53 56 60 62 64 66 65 65 65 64 64 65 64 61 61 66 70 73 72 63 62 62 63 63 61 64 69 71 70 72 69 68 68 70 76 83
55 57 62 62 63 62 62 64 70 69 72 74 72 68 59 64 68 77 70 63 62 61 60 62 64 63 63 63 66 69 70 73 70 70 72 68 67 74
62 65 66 63 62 62 68 73 73 75 79 78 68 68 71 80 73 64 58 58 59 60 62 64 65 68 70 72 70 67 69 72 74 68 65 69 73 70
67 66 66 66 68 74 77 74 76 73 70 74 76 90 75 65 67 64 61 63 65 68 73 71 69 68 68 68 69 69 69 69 67 66 68 73 79 77
69 64 66 71 75 74 72 72 70 76 84 85 94 71 70 65 62 64 67 71 79 69 70 69 65 68 73 73 72 72 74 75 75 76 79 73 75 70
68 66 68 69 77 74 72 71 73 76 93 94 81 72 62 63 67 72 90 83 79 68 69 75 74 74 72 70 70 72 73 73 73 78 84 88 83 77
68 68 70 73 76 81 82 79 78 96 78 75 70 67 71 72 93 94 85 86 83 78 81 80 73 71 68 68 68 72 75 76 76 78 79 80 82 80
69 71 76 76 78 78 75 96 94 75 69 70 70 77 92 90 78 80 90 92 88 78 69 82 72 72 72 73 73 75 77 78 78 79 80 83 80 79
73 75 76 70 71 66 87 92 71 68 68 72 86 84 74 76 82 94 91 89 82 72 73 75 72 78 81 79 76 73 73 74 84 87 86 83 81 80
72 69 68 73 68 77 77 73 75 68 85 96 70 68 74 78 84 84 90 94 89 87 63 83 86 84 82 62 65 72 77 75 79 84 90 94 94 97
67 68 74 72 82 71 68 71 76 87 83 75 74 77 81 81 82 89 95 98 95 92 81 94 91 89 90 86 75 75 76 80 85 92 93 97 97 98
70 78 76 79 72 72 74 80 80 81 76 79 81 86 88 92 95 98 100 100 100 98 95 100 95 96 93 89 83 74 78 87 92 98 97 96 98 99
81 74 77 77 72 75 80 82 84 80 82 87 89 90 92 97 100 100 99 99 100 98 93 96 100 98 97 94 92 88 90 88 89 95 96 99 98 99
76 81 80 73 78 82 80 78 80 82 87 92 93 94 96 97 97 97 99 98 97 90 86 92 98 99 96 94 96 93 89 96 94 99 100 100 100 100
75 79 71 75 78 78 80 82 82 84 90 92 96 95 94 94 94 94 97 96 95 92 90 88 92 94 95 93 95 87 94 96 97 99 99 98 99 99
80 75 79 82 82 84 86 88 89 91 94 97 97 97 96 96 95 94 95 96 94 91 92 91 92 92 80 69 72 97 92 96 98 99 100 98 98 100
81 85 87 88 90 94 95 96 95 96 98 99 98 98 98 96 93 94 94 94 91 90 91 91 94 95 92 89 72 74 98 98 98 97 99 99 98 100
89 90 93 94 96 97 98 97 97 98 98 99 98 97 98 98 95 94 93 94 93 91 91 88 90 95 96 95 94 86 90 100 98 97 97 99 100 100
92 93 94 99 99 99 99 99 100 98 97 98 98 98 98 97 95 95 96 92 93 92 91 89 91 95 91 96 87 81 86 93 98 100 98 98 98 98
97 99 100 100 100 100 100 100 100 100 98 99 98 99 98 98 96 96 96 95 93 94 95 96 92 92 95 88 92 88 89 90 85 90 97 99 99 98
100 100 100 100 100 100 100 100 100 100 99 98 99 98 98 97 98 98 98 98 98 96 96 96 93 93 91 92 88 86 87 84 92 88 95 99 99 100

GFSNE_925_rhum_042.txt.gz
RH
34 38 40 40 42 43 44 45 44 45 38 31 29 33 38 45 48 51 51 52 56 61 64 64 64 62 61 62 64 61 67 68 70 75 70 65 70 71
37 42 42 42 44 45 47 48 47 46 46 37 35 40 45 49 49 50 49 56 58 60 61 60 60 62 66 69 70 68 65 68 68 73 71 74 70 68
43 45 47 48 48 45 44 45 46 46 45 48 47 49 52 50 47 52 56 59 54 47 51 58 62 65 66 67 71 73 74 75 79 81 71 68 74 71
45 49 48 47 47 44 46 46 48 52 53 55 58 58 53 52 57 62 55 47 47 50 54 60 64 65 66 68 70 71 72 76 79 75 74 79 73 68
50 52 52 49 46 46 51 54 56 56 64 70 66 57 57 64 62 56 52 50 50 52 54 57 62 66 69 70 68 68 68 68 70 73 78 72 69 68
54 56 55 52 52 54 57 56 55 59 57 57 63 69 82 65 58 52 49 53 56 59 64 63 62 63 64 64 64 67 70 71 71 72 73 75 74 71
51 52 51 55 67 72 68 63 62 65 74 76 78 86 69 57 48 52 58 61 68 65 62 63 58 62 66 66 65 65 66 68 71 74 80 80 77 75
49 49 50 55 58 65 66 67 76 85 96 96 85 70 53 48 56 61 74 88 73 64 61 69 69 69 67 64 62 65 68 70 72 75 78 81 81 83
53 52 52 54 61 61 63 70 74 76 82 71 65 53 54 59 75 93 82 78 77 72 73 74 68 64 63 63 64 68 72 75 78 80 80 80 82 81
54 56 59 60 59 62 66 76 88 70 56 58 58 61 69 87 89 75 81 84 83 75 67 77 68 68 67 68 69 73 76 77 78 79 81 84 84 82
55 55 60 59 60 66 77 97 62 55 54 56 68 80 80 68 73 85 91 86 80 73 74 72 69 76 78 77 72 63 65 66 74 80 84 89 97 98
54 55 54 62 65 74 87 64 64 55 62 89 75 59 61 64 71 76 87 94 88 86 64 80 86 81 82 62 64 72 74 73 75 78 83 89 93 99
57 53 56 61 69 70 69 66 63 73 86 69 62 64 67 71 74 80 88 97 95 91 82 90 91 90 90 86 76 75 76 79 79 84 85 84 88 98
59 62 64 70 71 71 71 71 77 80 70 66 70 74 79 85 90 95 98 100 100 100 98 100 95 95 93 88 81 72 75 83 88 97 96 96 95 96
79 73 71 70 71 66 66 79 79 68 69 76 83 85 87 92 96 98 96 97 98 99 98 98 99 98 97 94 90 88 84 86 89 95 100 100 100 100
72 72 67 66 61 65 65 65 68 71 77 86 90 90 91 92 93 93 94 94 94 90 88 92 96 99 96 94 92 92 90 94 90 99 100 100 100 100
74 64 58 56 62 62 66 69 71 74 86 89 94 93 91 90 91 92 94 95 93 90 89 89 91 95 96 96 95 87 85 93 90 99 99 98 99 99
73 61 59 65 67 71 75 79 83 87 90 95 95 94 94 94 93 92 93 95 92 89 89 90 92 90 81 74 70 79 90 92 93 98 99 98 97 99
67 69 71 72 75 80 85 89 92 92 97 97 97 96 96 95 92 93 92 92 90 88 89 90 93 94 93 90 70 71 96 96 98 93 96 98 98 99
73 74 76 76 81 88 92 94 97 97 97 97 97 97 97 97 95 93 92 93 91 89 88 87 88 90 95 96 96 94 83 99 99 96 97 98 99 99
75 77 78 83 90 94 96 98 99 98 97 97 98 98 97 97 95 94 94 90 89 90 90 87 89 94 99 99 92 79 82 84 89 99 99 97 95 98
79 82 85 91 96 98 100 100 98 98 98 99 98 98 98 98 97 96 94 94 91 90 94 91 91 94 94 91 90 87 84 84 82 85 99 99 99 98
87 88 93 98 100 100 99 99 100 99 98 98 99 97 98 97 98 97 97 96 92 95 91 88 87 86 87 85 85 85 85 83 82 84 90 99 99 100

GFSNE_925_rhum_045.txt.gz
RH
34 35 38 38 38 40 42 43 46 52 46 35 32 32 33 38 41 47 49 48 49 53 57 58 59 58 59 61 66 74 78 72 75 72 71 70 69 70
34 37 39 40 40 42 44 45 44 46 51 41 39 39 42 46 49 49 48 49 54 53 56 56 53 57 61 64 66 69 71 72 77 78 78 74 75 71
38 40 41 43 44 43 42 41 43 44 48 46 49 50 52 54 53 51 53 57 56 52 50 54 57 60 63 65 67 68 69 70 71 70 78 79 77 72
39 42 44 42 45 43 42 42 45 47 52 54 54 57 58 56 54 58 62 60 52 49 50 54 58 60 62 65 66 68 69 71 69 72 79 77 76 75
42 45 47 48 47 44 46 49 51 54 53 55 57 56 57 60 68 73 57 52 49 50 52 55 59 63 64 64 63 64 65 66 68 70 70 76 72 72
44 46 47 50 48 49 57 60 59 59 62 62 65 70 71 81 66 57 51 52 56 58 61 66 61 61 62 60 63 67 69 69 68 68 70 70 75 80
45 45 44 44 54 58 62 66 67 68 76 79 80 84 82 64 58 52 56 62 66 74 68 66 63 63 67 65 65 65 66 66 68 70 72 77 80 80
45 44 46 47 47 53 60 60 61 64 83 98 92 81 73 58 55 61 74 82 88 68 68 73 69 70 68 66 64 64 67 70 72 74 75 78 77 80
47 48 49 49 54 56 57 57 64 69 72 72 75 63 60 59 68 81 90 87 78 75 76 81 78 72 68 67 67 69 71 76 79 78 79 82 84 83
47 49 52 52 55 56 60 72 80 86 72 58 57 59 62 74 96 98 82 80 83 77 73 84 75 74 72 72 73 75 77 77 74 73 72 76 82 91
48 49 51 55 53 58 65 83 87 66 62 55 61 70 75 68 64 68 87 89 84 75 75 79 78 81 82 81 76 68 68 68 77 78 80 79 82 94
54 55 52 52 58 63 69 76 71 67 65 75 80 72 61 62 66 69 81 96 92 87 71 83 91 91 88 65 64 76 78 78 78 80 79 85 89 94
66 57 57 60 65 67 68 71 70 68 78 83 68 64 68 73 78 84 90 98 96 92 84 92 93 93 93 89 78 76 77 80 81 84 88 87 91 97
61 62 70 70 69 67 68 66 70 75 74 67 70 75 79 85 88 88 93 95 95 98 94 99 96 97 94 90 84 73 76 83 88 91 93 99 99 100
65 70 69 68 66 62 60 66 66 66 68 75 83 86 87 90 93 97 94 97 92 91 94 98 100 98 98 94 91 89 83 85 89 96 99 100 99 100
77 76 70 62 54 57 59 62 65 69 74 85 91 93 93 93 93 93 98 96 97 91 87 90 93 98 97 96 95 93 88 91 90 100 99 99 97 97
72 75 63 53 60 61 64 70 73 77 87 94 97 96 95 94 93 93 95 97 95 88 87 88 91 93 97 100 97 90 88 88 88 94 98 95 94 89
76 65 58 66 67 70 75 80 86 89 94 98 97 97 96 96 95 95 94 95 94 90 89 88 91 93 84 77 72 84 85 90 91 95 92 97 90 89
65 67 72 73 75 78 84 90 94 94 97 99 98 98 98 97 93 94 94 95 92 88 87 89 89 96 94 89 70 73 88 95 97 95 86 94 98 97
70 73 75 76 79 86 93 97 98 98 98 99 98 98 98 98 96 94 94 95 94 93 93 84 85 91 96 95 95 91 88 95 99 97 90 95 99 98
74 76 78 82 88 95 98 98 99 98 98 98 98 99 99 98 96 95 95 90 90 93 92 86 88 86 90 98 91 78 80 84 93 99 99 98 97 96
79 83 86 89 96 99 99 99 99 99 98 99 98 98 98 98 97 97 96 96 94 93 96 94 86 89 94 86 92 90 83 83 83 87 99 100 99 98
88 90 93 98 100 99 98 100 100 100 100 98 98 97 97 97 98 99 99 97 97 97 87 88 86 85 79 84 87 94 91 90 87 90 92 99 99 100

GFSNE_925_rhum_048.txt.gz
RH
32 34 36 38 38 38 40 43 50 62 56 45 43 38 40 42 46 51 53 52 54 55 57 58 57 58 59 58 60 65 72 76 78 81 82 78 77 74
32 34 37 40 41 42 43 44 45 50 60 46 48 47 48 52 54 56 56 56 55 58 59 58 58 58 60 62 64 70 73 74 74 77 77 80 73 74
35 38 39 42 44 43 44 44 42 44 58 52 52 55 55 56 56 58 56 59 63 64 56 57 56 58 60 62 64 67 66 74 76 78 79 79 81 79
37 40 42 45 46 46 47 45 46 49 54 61 61 60 62 60 60 64 69 76 67 58 56 54 58 61 62 65 66 68 65 65 69 70 74 75 70 76
41 43 44 48 49 50 50 51 57 62 63 67 70 68 66 71 77 81 73 63 58 54 55 58 59 67 69 66 66 64 64 67 69 68 70 69 72 74
44 45 46 46 46 48 52 56 63 66 70 73 74 82 82 87 80 76 67 59 58 65 66 72 77 68 68 65 68 71 72 71 70 70 72 73 78 76
46 45 46 44 49 52 54 57 61 65 69 82 89 82 77 78 80 72 65 64 67 74 83 75 70 72 74 73 72 73 73 71 71 73 73 73 72 73
49 49 47 48 49 53 57 59 60 61 71 78 85 93 92 78 66 67 70 78 84 77 75 79 76 78 78 79 74 72 73 74 73 74 79 78 81 83
49 48 48 50 53 53 56 58 59 69 71 74 81 76 67 66 67 78 87 96 90 81 82 85 78 78 76 75 75 77 76 80 82 80 81 80 84 87
50 49 50 51 54 57 56 63 68 73 78 76 68 67 66 72 86 97 92 84 85 83 79 90 79 78 78 82 78 79 80 81 75 74 78 81 82 87
56 55 59 58 55 58 63 67 80 86 74 69 68 73 76 74 69 71 86 89 84 78 78 83 81 88 86 84 71 66 72 72 81 82 83 82 87 86
67 67 65 60 63 63 67 77 77 75 71 74 82 75 71 67 72 76 81 96 93 87 72 84 90 92 87 67 66 75 77 81 82 82 83 86 89 89
69 66 63 66 68 69 67 68 70 67 74 79 72 72 73 77 80 84 90 96 96 92 84 92 94 93 94 90 79 79 79 78 83 84 90 92 90 90
68 67 69 74 70 68 67 63 65 69 66 70 74 79 87 92 93 94 95 97 97 100 98 100 97 97 94 90 85 74 78 83 88 90 91 92 94 95
70 73 75 74 72 64 58 64 66 66 72 79 90 92 92 95 99 100 95 97 98 96 94 93 100 98 98 94 91 90 84 84 88 92 88 97 100 95
80 78 79 71 62 61 65 66 71 76 82 86 92 95 98 98 98 98 99 98 98 92 86 86 91 98 97 96 96 93 89 92 89 90 95 99 96 93
72 77 70 65 72 73 75 77 81 85 91 94 98 98 97 97 96 96 98 98 97 92 90 88 86 89 94 99 96 91 90 92 89 89 93 95 91 94
72 68 72 78 80 81 82 85 89 93 97 99 99 100 98 98 97 97 98 98 96 92 92 90 92 96 87 79 78 90 87 89 91 89 94 97 92 82
71 73 79 81 83 84 87 93 98 99 100 100 100 99 99 98 95 97 96 96 93 91 90 93 98 96 94 89 70 71 95 97 95 95 89 91 97 91
77 78 81 84 86 91 96 99 100 100 100 100 100 98 99 98 97 95 95 96 95 93 94 89 91 97 96 95 94 88 85 88 99 95 91 90 94 97
80 84 88 91 94 98 100 100 100 100 98 98 98 98 98 98 96 96 96 92 91 93 92 89 90 91 95 97 94 80 77 78 87 97 99 98 96 96
90 93 94 95 98 100 100 100 100 100 98 98 98 98 98 98 97 97 97 96 95 95 95 98 90 92 94 94 93 91 88 85 85 87 89 98 99 98
92 97 98 100 98 99 100 100 100 100 100 98 99 97 97 97 98 100 99 98 98 97 97 94 92 88 89 95 96 94 92 88 89 90 88 79 96 99

GFSNE_925_rhum_051.txt.gz
RH
29 31 34 36 38 39 41 44 51 71 58 50 46 41 47 48 54 57 58 54 61 62 61 64 65 62 61 61 60 73 73 80 80 76 76 75 75 72
31 33 34 38 40 41 42 44 46 54 68 46 49 51 54 58 58 60 58 61 63 65 66 65 63 62 62 66 68 65 80 72 77 79 80 78 74 78
33 36 38 40 43 44 45 46 47 47 62 58 58 62 64 62 61 62 63 67 70 69 67 65 63 62 62 62 67 68 73 74 73 78 80 81 81 80
35 38 41 43 45 47 48 50 50 51 60 67 69 69 71 70 72 75 77 80 79 71 65 60 59 63 64 68 72 82 66 70 75 74 78 74 75 79
42 44 44 46 47 47 50 50 51 55 60 65 74 75 76 81 82 89 87 80 75 68 60 61 64 72 76 73 71 70 71 73 73 70 74 74 72 75
45 45 46 47 46 48 52 54 57 61 64 70 79 82 85 75 80 83 80 74 69 67 66 71 76 78 73 71 75 76 78 78 77 74 78 84 85 84
36 42 47 48 54 54 55 58 60 62 64 71 90 84 76 76 84 77 78 74 70 72 76 82 88 76 78 79 78 79 83 78 75 79 81 84 84 87
46 48 49 49 49 56 56 58 60 61 66 76 87 83 83 82 74 74 75 80 83 77 83 85 80 82 81 81 80 78 77 80 81 82 82 83 86 83
52 51 51 53 55 56 58 61 60 68 70 74 86 89 88 75 73 80 94 98 92 84 86 88 80 80 79 79 78 80 82 83 83 83 82 79 81 84
54 59 60 62 62 63 61 66 67 71 77 84 80 76 74 82 94 93 90 86 87 83 80 88 80 81 80 82 82 83 83 83 78 76 78 82 86 87
59 64 70 68 65 65 66 68 75 83 73 73 73 79 80 76 75 77 85 90 86 79 80 85 81 87 86 86 70 66 75 75 79 83 85 84 85 88
65 68 67 69 68 68 71 76 75 72 67 77 81 69 66 68 79 81 85 96 94 89 70 85 92 95 85 68 67 74 74 81 84 83 84 86 88 90
71 72 70 74 75 73 70 71 68 65 78 69 67 72 76 80 86 89 95 100 97 94 83 95 94 94 95 90 81 79 80 76 79 84 86 89 94 95
76 75 76 82 76 73 70 66 67 72 67 73 80 85 92 95 94 95 96 97 99 100 96 99 96 98 95 90 85 76 77 83 88 91 90 94 95 97
79 80 81 80 74 70 68 71 73 70 78 87 94 94 95 98 98 100 92 96 97 92 89 89 98 100 100 94 91 89 85 84 88 91 87 93 93 95
78 80 78 70 71 74 74 74 76 82 88 93 96 98 100 100 100 100 100 100 100 92 82 89 91 94 98 97 97 92 87 92 88 93 94 94 94 93
74 70 68 75 81 82 81 82 83 88 95 98 100 100 99 99 98 97 100 99 98 93 92 90 88 92 98 100 98 92 91 92 91 92 94 94 91 88
75 76 83 85 87 87 88 90 94 97 100 100 100 100 100 99 100 98 98 98 97 93 94 93 95 96 90 84 88 96 96 95 91 93 93 97 91 83
79 83 88 90 90 92 95 98 100 100 100 100 100 100 100 99 95 96 97 97 94 92 92 94 98 96 93 89 69 71 88 96 94 93 92 94 96 90
84 89 92 93 95 99 100 100 100 100 100 100 100 98 98 98 97 96 96 96 95 93 93 90 91 96 96 94 94 87 88 96 98 96 94 90 93 91
90 94 95 95 99 100 100 100 100 100 100 99 99 98 98 98 96 97 97 93 93 94 93 89 88 94 98 99 94 80 78 80 86 97 98 98 92 87
92 94 94 100 100 100 100 100 100 100 100 100 98 98 98 99 97 98 98 97 96 97 97 96 96 95 97 97 92 88 88 86 85 87 87 92 99 97
92 95 98 100 99 100 100 100 100 100 100 97 98 98 98 98 99 100 100 100 100 98 97 93 91 91 92 95 93 92 88 86 87 88 87 76 80 87

GFSNE_925_rhum_054.txt.gz
RH
26 28 30 34 36 37 39 43 49 64 65 47 44 42 47 50 53 61 61 58 65 67 68 69 68 67 65 64 60 66 85 72 74 72 76 73 75 75
29 30 32 35 39 40 42 44 47 54 74 51 47 49 52 56 58 65 65 72 68 70 72 71 70 68 66 67 79 69 67 79 74 79 73 77 77 75
32 35 35 38 40 43 44 46 48 50 68 57 56 57 62 63 66 68 65 66 67 74 75 74 72 69 66 66 66 71 72 78 82 80 74 75 78 79
35 36 39 42 44 46 48 49 50 50 55 68 65 65 69 67 72 74 72 76 81 82 78 74 69 68 69 70 75 77 82 75 73 76 72 68 70 75
48 45 45 46 48 48 48 49 50 53 57 65 73 71 71 72 78 78 81 84 77 78 71 69 69 73 78 76 73 74 74 75 73 72 71 71 75 76
46 46 46 47 48 48 54 56 57 60 62 66 74 76 76 82 79 79 81 76 76 75 74 76 78 78 76 76 78 79 80 80 80 79 75 80 84 84
34 41 46 49 58 59 56 59 59 60 63 68 82 83 92 83 82 82 83 78 77 79 75 80 77 84 83 83 82 81 85 85 80 80 80 83 86 83
41 45 48 49 52 64 66 62 61 64 67 76 84 94 89 88 85 87 82 88 86 76 84 85 82 83 83 80 83 82 80 79 79 83 85 87 87 89
45 52 57 58 58 60 62 67 67 70 69 74 85 89 91 84 82 88 97 99 89 88 87 87 81 83 79 80 79 80 82 83 83 82 83 83 85 84
51 59 65 68 68 71 69 68 68 73 77 80 81 78 77 87 96 91 83 87 89 85 82 87 79 81 80 80 81 82 83 85 83 80 77 77 80 83
60 67 72 75 73 71 69 74 85 81 72 70 75 80 83 78 74 80 89 93 88 82 81 86 83 84 84 86 71 63 79 76 75 79 82 84 86 85
70 71 73 76 74 75 76 74 78 72 66 78 80 69 62 65 80 82 87 97 95 90 68 82 90 94 84 68 68 66 74 75 83 85 84 84 85 86
77 76 72 82 81 77 72 73 72 69 78 75 66 70 73 79 83 86 93 100 98 94 85 94 94 95 95 91 82 81 81 80 76 81 87 88 90 92
80 80 81 83 78 75 74 74 74 78 70 75 86 90 94 93 88 94 92 97 98 100 94 100 97 99 95 91 86 77 78 85 90 92 91 94 95 94
82 82 86 80 75 73 77 79 81 72 81 91 98 97 97 99 97 100 98 94 96 86 86 92 100 100 100 94 92 90 89 85 88 92 88 89 93 99
77 78 76 72 73 76 76 74 78 84 92 94 98 100 100 100 100 100 100 100 100 95 76 86 94 96 99 98 99 93 90 93 88 93 96 97 98 98
79 69 67 72 79 82 83 83 86 92 97 99 100 100 100 100 100 98 100 100 99 94 93 89 86 93 98 100 99 96 94 94 93 94 96 96 93 92
78 79 84 86 91 93 94 95 96 98 100 100 100 100 100 100 100 99 99 99 98 94 95 94 96 97 90 85 93 97 95 96 93 94 96 98 91 86
81 87 91 94 95 96 99 100 100 97 99 100 100 100 100 99 97 98 98 98 95 94 94 94 98 96 94 90 69 71 93 97 97 94 94 92 94 90
84 91 95 96 99 100 100 100 100 100 100 100 99 99 99 99 99 97 97 97 96 94 94 91 93 96 95 93 94 85 87 95 98 95 93 91 91 91
88 92 94 96 100 100 100 100 100 100 100 100 100 99 99 98 97 98 98 95 94 95 93 89 89 94 99 100 94 80 77 78 88 99 97 97 91 88
92 95 95 97 99 100 99 99 100 100 100 100 99 99 100 100 99 98 98 98 96 96 96 96 96 97 99 97 92 90 87 85 86 93 96 99 98 97
92 96 97 96 96 96 96 97 100 100 99 99 98 100 100 100 100 100 100 99 98 97 96 94 92 91 94 96 96 95 94 92 92 91 89 80 81 79

GFSNE_925_rhum_057.txt.gz
RH
26 25 26 29 31 34 35 39 44 56 64 44 40 41 41 45 52 58 64 61 72 73 75 74 73 72 70 68 66 64 66 67 73 72 76 72 71 72
29 28 30 32 35 38 39 42 45 51 69 49 46 45 46 54 58 64 60 67 65 75 74 76 75 74 71 69 69 73 68 66 68 78 79 71 74 76
36 39 44 41 41 41 43 45 47 51 70 58 53 51 57 60 62 62 63 60 63 74 79 80 79 75 71 70 69 69 72 76 77 79 81 86 79 75
54 42 40 43 45 46 47 48 49 50 59 66 60 61 64 63 66 69 69 64 71 72 84 81 76 75 76 75 74 75 79 83 79 74 73 74 69 72
43 58 59 49 48 48 48 49 49 52 56 65 73 70 69 68 71 79 75 78 76 76 75 77 76 78 82 79 77 74 75 76 74 74 74 72 71 70
64 59 54 49 47 48 50 57 57 59 62 65 72 75 76 75 83 86 85 80 82 75 78 82 83 83 76 76 80 83 84 83 82 79 77 76 75 74
44 40 42 46 58 65 63 61 63 64 64 67 81 81 85 91 88 83 92 89 87 81 75 78 79 82 79 82 81 82 86 88 84 78 81 80 85 85
37 39 41 42 49 60 69 68 66 66 70 76 78 93 94 87 87 92 90 95 88 76 82 87 85 85 78 75 79 86 84 81 79 79 81 83 86 87
36 39 49 55 60 63 66 74 72 73 73 77 86 87 88 85 83 91 98 100 92 85 88 88 84 86 73 73 76 82 83 84 83 81 79 80 84 89
51 61 66 68 69 76 75 72 72 79 80 79 81 78 76 85 98 95 89 85 91 90 83 87 77 82 75 78 80 82 82 84 84 81 79 75 77 80
61 69 76 76 74 77 72 80 88 77 75 73 78 84 85 80 76 81 90 96 89 84 84 87 85 80 82 81 68 59 81 80 76 75 77 80 82 82
75 73 71 79 80 78 82 79 78 73 69 82 82 72 62 65 74 82 88 99 95 89 70 81 86 94 87 67 68 66 73 70 84 86 86 84 84 83
78 78 74 86 79 76 75 76 77 74 81 79 68 70 71 74 80 86 92 100 99 95 86 95 94 96 95 91 84 80 79 80 76 81 87 90 91 90
81 81 84 87 81 78 75 79 80 84 74 77 86 89 92 88 81 85 88 91 99 100 94 100 96 99 95 91 86 77 79 84 89 93 90 90 96 95
82 86 88 79 76 71 78 85 87 76 83 92 97 97 95 95 92 90 90 96 97 91 88 91 100 100 99 94 92 90 90 86 89 93 92 90 87 91
80 82 71 69 76 80 75 76 81 87 96 97 97 99 100 100 100 98 100 100 100 94 80 85 92 96 98 98 100 93 90 94 88 94 96 98 100 100
84 68 64 75 81 83 84 85 88 91 97 99 100 100 100 100 100 97 100 100 99 96 94 87 86 91 97 100 98 95 95 96 95 97 100 97 94 96
79 76 84 88 92 94 96 94 91 96 96 100 100 100 100 100 100 100 99 100 98 95 97 95 97 98 91 84 94 97 95 96 94 95 96 98 93 85
79 86 90 92 94 96 98 99 100 96 98 100 100 99 99 100 98 99 99 99 96 94 94 93 98 97 94 90 69 72 96 97 97 97 95 94 94 88
81 88 92 93 95 100 100 100 98 96 98 98 98 98 98 99 98 98 98 97 96 94 94 90 94 97 96 94 94 86 87 98 98 96 93 92 94 94
87 90 92 94 97 100 100 99 99 99 100 99 98 98 97 100 99 100 100 95 93 95 94 92 91 96 98 100 95 80 78 85 97 99 97 98 92 88
88 93 93 96 98 99 99 98 97 96 96 98 97 99 98 100 100 100 98 98 96 95 96 97 96 98 99 97 93 91 91 87 87 91 96 99 99 97
88 94 96 97 98 98 99 98 98 96 96 98 98 99 99 100 100 100 100 100 98 97 95 95 94 92 96 97 96 95 94 92 90 90 89 74 93 93

GFSNE_925_rhum_060.txt.gz
RH
26 23 24 24 25 27 28 30 34 47 54 40 34 36 36 40 44 54 57 61 75 73 71 75 75 75 73 72 70 69 67 66 72 71 64 61 72 74
28 29 30 33 34 36 40 48 46 43 59 41 41 41 45 46 53 58 61 63 66 73 74 77 78 77 75 72 70 71 68 67 68 74 77 71 73 77
35 36 37 46 59 61 56 47 45 50 66 57 52 46 50 54 57 60 64 66 62 61 77 79 81 78 77 75 74 72 70 72 73 77 80 82 82 77
52 63 60 66 68 64 58 58 49 51 58 71 59 58 61 60 64 68 69 68 64 59 80 83 80 79 80 79 76 80 79 85 83 79 80 77 77 72
61 67 77 80 72 58 52 51 50 50 56 65 70 68 69 68 71 76 76 75 72 66 76 82 81 84 86 83 79 75 77 76 77 76 73 74 72 71
82 87 88 73 65 55 51 56 61 61 62 67 70 73 76 74 82 86 88 81 81 76 72 78 84 83 81 79 81 85 84 84 84 82 80 78 76 76
84 70 56 54 69 72 71 72 71 70 68 69 80 82 84 85 91 86 92 91 92 84 74 76 75 79 76 77 78 80 84 90 88 83 79 79 86 87
46 46 43 46 47 50 71 71 71 72 74 78 78 90 95 89 88 90 92 98 88 77 77 86 83 85 80 74 71 87 86 85 84 83 79 78 84 86
38 44 50 58 58 56 59 74 76 77 78 80 89 88 89 84 79 88 99 100 94 88 91 90 85 86 75 66 69 81 84 85 86 85 80 80 79 83
55 61 63 61 59 78 78 76 76 83 82 81 83 80 78 85 94 93 90 87 92 91 88 90 77 79 77 75 78 82 84 85 85 82 78 76 78 82
64 69 72 71 72 81 78 92 86 78 74 72 81 86 87 82 79 85 91 98 90 85 85 89 87 82 82 80 67 60 76 78 76 76 79 83 81 80
72 70 71 83 82 78 78 78 80 74 70 84 83 73 63 66 71 83 90 100 96 90 71 86 88 94 92 65 67 68 70 69 81 85 86 85 86 84
78 81 81 90 80 78 76 77 77 78 88 85 71 71 71 73 77 83 91 100 100 96 90 96 95 96 95 91 84 79 79 77 74 79 86 89 92 92
83 84 86 83 80 77 77 83 83 88 78 78 85 87 90 86 81 84 86 90 95 100 89 100 97 99 96 91 87 78 80 84 88 92 89 88 93 97
82 87 86 77 80 69 86 90 90 79 86 95 98 95 91 89 87 86 84 87 88 85 84 85 97 100 100 95 92 91 91 85 89 93 88 85 84 87
80 83 70 69 72 81 76 78 81 87 98 96 96 94 92 94 95 94 97 94 100 90 83 84 89 96 97 99 99 94 90 94 88 93 96 96 99 100
87 65 68 79 81 82 82 84 85 88 93 94 98 100 98 98 96 93 96 100 100 97 95 83 87 94 98 98 96 93 93 95 94 96 100 97 95 97
74 78 83 85 89 92 93 91 87 90 93 98 98 99 100 99 99 98 100 100 100 97 98 94 97 99 90 82 90 99 98 99 97 98 99 98 93 89
76 83 87 90 92 94 96 97 96 94 96 96 98 99 98 98 99 100 100 100 98 95 94 96 98 97 94 89 70 74 97 96 98 96 95 94 95 90
82 88 91 93 95 96 96 98 96 94 96 98 97 97 96 99 99 99 99 99 97 95 95 90 92 97 96 95 94 88 91 98 99 96 95 94 95 95
83 86 90 94 95 97 98 98 98 98 100 98 97 96 94 99 99 99 99 98 95 95 94 89 87 95 100 100 95 81 81 88 98 99 98 98 93 90
83 88 90 94 97 98 98 99 98 96 96 98 97 96 94 99 100 99 99 98 97 97 97 97 96 96 98 97 94 91 89 85 77 86 92 96 99 97
84 90 93 95 96 97 98 99 98 92 96 97 97 95 96 100 100 100 100 100 99 98 94 94 92 89 90 97 97 95 93 92 91 91 87 72 77 84

GFSNE_925_rhum_063.txt.gz
RH
54 41 43 35 28 30 30 28 36 52 46 39 36 37 38 37 39 48 59 55 71 75 75 76 75 76 75 74 73 72 70 69 68 71 72 69 76 69
44 35 31 32 34 39 46 44 56 65 72 42 40 36 42 45 44 54 62 61 70 75 77 78 78 77 76 75 73 74 76 74 78 72 70 79 79 81
33 34 39 43 51 63 62 68 76 69 81 60 47 45 45 46 53 56 62 69 72 76 78 77 80 80 77 76 76 75 75 78 80 82 83 81 84 83
44 51 67 71 76 80 88 90 88 68 61 59 60 60 57 58 61 68 68 72 72 71 76 84 82 82 83 82 81 77 79 81 82 81 77 76 78 79
62 69 76 87 96 99 97 90 78 61 61 84 72 69 72 66 77 80 82 82 80 78 79 82 84 85 87 83 81 79 78 78 78 77 76 73 72 72
84 90 94 95 97 96 86 79 79 89 85 82 72 76 79 80 86 85 76 71 71 78 80 84 85 82 81 80 82 84 86 87 86 84 81 77 79 78
100 100 83 63 84 94 91 93 88 79 74 80 81 81 81 76 74 76 76 75 78 81 79 74 73 76 76 78 79 80 83 89 89 85 83 84 85 87
58 49 46 58 60 55 90 78 74 76 85 87 89 82 79 78 78 76 81 85 80 71 76 77 76 75 73 74 76 82 84 84 84 82 83 85 86 88
44 49 59 68 64 57 59 76 79 82 84 85 83 79 79 75 81 96 93 91 86 80 81 82 76 75 74 72 78 80 84 85 86 85 82 79 80 86
60 78 74 69 59 80 81 80 84 83 78 84 82 81 83 90 92 90 84 83 83 80 79 82 73 70 71 74 77 82 76 82 83 81 80 77 77 76
79 69 74 72 81 79 79 85 85 80 69 70 86 91 89 83 84 87 90 88 88 75 77 80 78 76 79 80 73 64 76 78 76 75 78 80 82 80
72 71 73 86 81 78 80 79 80 72 80 89 82 64 63 66 70 86 94 100 96 85 76 86 80 85 79 66 71 74 75 77 80 84 86 86 86 86
83 84 81 88 81 80 79 78 78 80 89 78 71 72 73 77 81 88 97 100 100 96 88 96 93 92 94 87 78 77 78 79 79 80 82 87 91 93
86 87 89 83 79 82 82 88 86 91 75 81 87 88 91 84 80 84 83 88 97 100 81 100 97 99 96 91 84 76 78 83 88 91 92 94 95 96
85 90 82 76 72 67 90 95 86 79 88 95 96 98 99 89 84 83 85 85 89 86 81 84 95 100 100 95 92 90 90 85 90 91 80 95 97 96
81 77 61 67 73 77 76 79 82 89 98 97 100 100 98 99 99 93 100 96 100 87 86 86 88 94 98 100 100 95 91 94 87 93 96 98 100 100
89 59 70 77 81 84 85 85 87 91 99 100 100 100 100 100 98 90 100 100 100 98 96 85 92 100 100 100 100 95 94 94 93 96 99 98 96 96
65 80 87 92 93 94 94 96 94 94 96 98 100 100 100 100 99 98 100 100 100 98 98 96 97 99 91 85 88 100 98 96 94 96 99 99 92 88
74 86 94 95 96 98 100 100 100 94 94 95 96 97 100 97 100 99 99 98 95 94 95 97 98 96 93 88 70 78 98 97 96 96 97 97 96 92
80 87 92 92 95 100 98 99 98 95 95 96 97 98 96 99 100 98 96 97 96 94 93 90 93 96 96 95 95 90 92 98 99 98 95 93 94 95
79 84 89 92 95 98 98 97 97 96 100 100 96 96 91 100 100 99 99 96 93 94 93 90 89 96 97 100 94 80 80 84 90 99 99 99 93 88
79 85 88 94 96 98 97 96 95 93 92 96 97 95 91 99 100 100 99 98 96 95 96 96 93 94 95 96 90 87 87 85 84 89 88 97 99 95
78 84 90 95 97 98 98 98 97 92 91 94 96 94 97 100 100 100 100 100 99 97 95 92 90 88 88 90 89 87 89 87 85 86 85 86 92 97

GFSNE_925_rhum_069.txt.gz
RH
100 96 86 75 60 48 52 67 88 93 90 82 66 54 55 53 49 60 61 69 69 63 70 73 78 79 81 80 81 78 77 75 73 72 71 72 70 74
100 97 87 82 87 93 94 85 86 85 86 70 66 76 78 83 83 92 74 63 66 64 65 69 72 76 78 78 79 78 76 74 73 71 70 67 68 82
100 97 95 92 91 87 83 82 80 82 92 95 87 93 97 96 89 77 71 68 60 58 59 65 72 77 80 82 81 80 78 77 75 72 70 72 74 78
92 89 88 80 79 79 83 88 93 93 92 98 98 95 89 74 88 72 57 64 58 60 65 67 73 74 79 82 83 82 81 80 78 76 75 71 69 70
90 85 75 69 80 90 92 97 97 97 96 97 93 80 82 74 66 63 66 64 63 57 54 56 65 70 78 84 85 86 86 85 83 82 81 79 77 75
80 81 84 87 94 100 100 99 95 88 88 89 76 63 62 63 64 67 63 57 55 56 61 66 67 68 68 68 70 74 76 78 80 82 81 80 79 78
92 98 100 100 99 93 83 84 91 85 73 73 76 69 68 64 58 57 58 56 63 71 71 66 61 62 64 64 64 64 65 70 76 79 79 78 78 82
99 99 99 94 91 87 67 77 92 85 77 80 81 76 66 58 56 57 70 81 81 74 72 74 68 66 65 64 64 65 68 71 75 79 79 77 78 81
96 95 91 75 48 58 61 78 80 81 80 80 76 68 62 59 62 68 79 82 84 80 72 72 69 69 66 63 64 67 71 74 78 80 81 82 81 79
90 89 86 75 72 83 81 77 82 81 79 76 70 66 63 63 72 77 79 78 76 76 70 74 71 72 70 69 70 73 76 78 79 82 83 83 82 81
67 85 77 67 75 84 79 84 80 69 63 62 71 81 86 90 89 87 87 87 81 82 82 83 74 76 76 75 67 73 71 72 75 80 80 82 83 83
63 67 70 85 83 83 80 71 67 61 59 78 78 70 64 64 70 79 85 87 91 90 73 80 86 90 91 69 72 70 73 76 79 78 82 81 81 81
65 65 69 84 82 80 80 77 67 74 80 75 63 62 66 69 73 77 83 89 94 96 94 96 96 96 94 91 83 83 80 76 82 83 84 86 88 87
63 68 72 83 79 82 80 79 88 90 76 67 69 74 80 89 94 99 100 100 100 100 100 100 99 99 98 94 91 84 87 90 93 96 92 93 92 96
72 78 75 74 78 79 83 89 85 75 71 74 83 85 90 98 100 100 99 100 99 100 99 100 100 100 100 97 95 95 92 92 94 92 89 95 96 93
76 72 60 60 68 70 73 73 74 75 80 85 85 89 94 98 98 99 99 98 96 93 94 96 97 95 99 99 100 95 91 96 93 98 98 98 99 100
83 54 53 59 66 67 68 72 74 75 81 88 94 97 98 97 99 98 96 93 97 91 92 92 94 92 97 98 99 98 96 95 95 96 99 99 96 94
65 51 56 66 71 74 76 80 87 90 91 98 100 100 100 100 100 98 91 89 94 90 92 88 89 94 94 93 93 100 97 99 95 95 98 99 95 91
57 60 72 77 82 85 89 91 95 97 100 100 99 100 100 100 99 98 98 93 90 88 88 90 93 94 94 90 73 74 80 91 94 95 93 89 92 92
64 76 81 84 87 90 96 99 100 100 100 100 100 97 96 98 98 99 99 98 94 94 93 87 89 91 97 95 95 91 91 91 98 99 97 89 90 93
69 76 82 86 92 98 100 100 100 100 100 97 97 96 97 98 100 100 99 96 95 92 93 88 89 91 93 99 95 81 76 78 81 87 89 94 93 91
71 76 83 90 97 100 100 100 100 100 100 100 99 98 100 98 99 99 98 97 98 97 96 91 94 99 97 94 93 91 84 81 80 81 80 88 98 96
78 82 85 92 100 100 99 100 100 100 100 100 100 100 100 100 100 100 99 99 97 98 95 95 98 86 86 88 98 80 82 82 80 80 82 82 88 94

GFSNE_925_rhum_072.txt.gz
RH
100 100 100 93 84 76 67 67 79 97 95 93 94 95 93 91 90 75 66 61 69 79 86 76 73 76 80 80 80 81 80 80 78 76 74 73 71 68
100 100 100 96 88 81 73 76 85 92 98 97 96 94 94 90 84 76 82 85 63 74 68 66 68 69 73 79 81 81 81 79 78 76 74 71 69 71
100 100 100 98 95 95 94 94 94 95 97 100 98 96 92 91 91 95 83 70 62 56 65 66 69 74 77 81 82 82 82 80 79 77 75 72 71 72
100 100 99 99 96 93 91 90 90 86 88 97 99 98 94 89 64 53 54 61 61 62 66 68 65 64 71 76 80 83 84 83 81 78 77 78 73 71
97 95 93 91 90 91 94 96 96 95 93 92 95 79 64 65 64 64 65 62 63 62 57 58 65 71 75 76 79 78 78 79 79 79 80 80 77 75
94 90 88 85 90 97 99 99 95 83 71 71 75 71 67 65 64 64 66 59 56 58 59 62 74 72 70 69 71 73 72 72 74 75 76 77 76 77
94 98 97 99 100 100 96 89 81 81 77 73 72 73 73 66 62 61 58 60 60 55 68 66 64 62 62 61 65 70 72 73 73 75 75 74 76 77
99 99 99 99 100 90 86 96 76 81 81 82 85 80 74 65 60 62 67 68 86 74 74 75 75 70 64 64 69 73 71 73 76 76 76 78 78 78
96 96 94 87 61 57 88 78 76 85 88 82 81 77 72 64 63 64 72 79 82 80 80 78 77 72 60 64 67 76 76 80 82 83 84 84 79 79
92 93 89 77 68 80 82 79 83 80 79 79 77 72 68 64 70 80 86 84 76 72 82 83 74 68 66 69 63 72 80 84 79 78 79 81 81 82
65 66 74 70 81 83 82 84 76 70 65 59 64 77 86 90 90 88 84 84 93 82 85 89 82 79 75 65 62 66 78 78 84 87 86 84 82 84
64 68 77 80 85 85 81 76 70 63 64 80 79 68 62 62 68 71 73 80 85 90 85 85 86 94 92 72 73 75 73 70 87 90 90 89 87 86
65 66 70 83 81 81 82 71 70 79 84 78 66 64 68 72 75 78 85 88 90 94 92 98 98 98 97 92 87 89 84 77 85 89 84 92 98 94
66 71 74 80 77 80 76 86 92 92 72 70 71 79 85 86 93 95 99 100 100 99 99 97 99 99 98 94 90 86 86 91 90 90 87 80 91 95
67 75 78 67 74 73 79 86 82 73 74 75 84 86 88 90 94 100 100 99 98 94 93 94 96 94 100 97 95 94 89 88 89 83 88 98 95 88
72 71 62 65 72 77 74 72 74 75 80 82 88 91 96 99 98 99 97 91 90 89 86 89 90 96 99 100 100 97 96 97 93 94 94 95 92 93
80 52 52 58 67 70 70 72 75 80 86 89 93 96 98 98 98 100 100 96 100 97 92 88 88 88 89 95 100 99 97 96 97 96 98 98 96 94
62 54 56 69 75 79 82 87 89 95 96 98 99 100 97 96 96 97 98 99 100 98 97 88 89 97 96 92 87 100 100 98 97 93 95 98 96 87
60 62 72 78 83 86 91 93 96 99 100 100 98 96 95 91 93 97 96 100 100 98 94 90 100 99 94 91 74 73 79 88 93 96 96 98 98 92
60 68 77 82 86 90 95 97 99 100 100 100 98 92 91 95 99 100 100 99 98 97 98 92 93 88 96 94 94 91 85 87 96 99 98 96 97 95
66 71 75 81 85 93 100 100 100 99 100 99 100 98 97 100 98 100 100 95 93 96 95 91 91 92 93 95 96 87 78 80 86 93 97 99 96 92
69 71 73 78 88 93 100 100 100 98 96 96 96 97 97 97 99 100 100 100 99 97 94 93 94 98 100 99 91 89 89 87 80 81 83 89 98 96
68 70 69 74 83 92 100 100 100 100 100 99 98 97 97 100 99 99 100 100 100 99 94 94 95 99 92 91 94 97 83 82 82 84 88 83 85 84

GFSNE_925_rhum_075.txt.gz
RH
100 100 100 100 100 94 90 86 85 98 94 93 85 88 88 90 86 94 96 100 100 92 98 99 93 78 75 77 78 80 81 80 79 78 76 74 73 71
100 100 100 100 100 97 94 89 87 93 97 91 97 100 97 97 100 100 98 94 88 96 95 79 74 72 72 76 79 81 80 80 79 77 75 74 71 77
99 100 100 100 99 96 93 91 94 98 98 100 99 98 97 96 91 84 84 92 88 69 74 71 70 72 76 75 76 80 82 81 79 77 76 74 72 82
99 99 99 100 99 99 97 94 94 96 94 98 99 96 93 88 92 94 68 55 58 61 72 72 69 65 68 75 78 81 80 80 79 78 79 82 77 76
98 98 99 96 95 94 94 94 92 92 92 92 97 96 92 72 68 62 59 62 64 62 62 62 70 74 78 79 77 77 78 79 79 77 75 74 74 75
94 91 89 88 90 93 95 97 98 94 94 95 76 73 68 66 66 65 66 66 60 56 54 56 72 73 68 76 78 76 77 77 77 77 76 76 76 72
96 99 99 99 99 97 97 97 94 95 93 83 73 74 73 68 67 65 62 63 59 56 62 58 55 55 55 59 60 61 82 80 78 77 77 76 72 75
98 98 99 99 99 100 98 98 92 94 90 83 88 83 74 72 63 63 64 68 76 69 73 71 60 58 60 60 60 80 81 83 82 81 82 79 78 80
96 95 92 83 73 66 88 92 82 73 75 79 80 81 77 69 67 66 76 82 85 80 74 80 67 64 62 62 61 84 87 88 90 88 84 79 78 79
76 66 64 67 70 85 84 81 82 80 78 79 80 75 72 68 70 81 85 87 80 69 81 89 73 73 70 59 59 61 79 83 86 89 89 87 86 88
61 73 75 78 83 89 83 83 79 72 67 64 66 79 87 90 90 86 81 78 84 83 85 92 86 84 74 67 63 63 71 87 91 94 93 93 93 90
70 69 80 82 85 83 81 76 72 66 64 76 81 67 63 63 67 70 72 77 83 87 86 94 94 96 89 78 78 81 80 76 92 91 96 99 99 94
66 68 70 84 80 80 81 66 70 83 88 81 69 67 72 79 84 88 93 98 94 91 91 98 95 98 95 91 85 83 80 76 76 77 77 80 95 99
66 71 72 77 76 79 78 86 91 93 74 72 74 85 88 89 88 96 100 100 99 98 94 92 99 98 99 95 90 81 82 82 86 86 84 82 92 97
70 83 81 65 63 60 81 85 85 72 74 76 80 85 91 92 98 99 99 99 93 87 83 82 91 94 100 99 97 97 93 94 92 83 89 91 91 88
71 60 62 62 68 75 75 71 73 76 82 83 87 93 98 99 98 98 96 95 98 89 81 82 85 93 97 100 100 98 98 99 94 96 96 95 96 96
79 49 51 58 69 73 74 76 80 86 93 94 96 99 100 100 96 96 93 94 99 100 98 86 82 82 79 88 100 99 97 94 97 100 100 100 97 93
70 56 58 67 76 80 84 88 89 95 97 97 96 96 94 93 91 90 92 96 98 100 100 99 98 99 95 87 84 100 96 95 94 95 96 100 97 91
52 60 67 77 84 86 88 91 95 97 98 96 96 95 94 91 100 96 98 100 100 96 92 89 99 99 94 90 76 76 78 88 94 97 98 96 97 93
65 63 68 74 82 86 89 98 100 99 98 98 95 96 96 97 99 99 97 100 100 99 100 97 92 92 97 94 95 90 75 86 94 96 91 94 97 90
58 64 70 73 77 83 89 99 100 100 100 98 97 98 96 98 99 99 100 99 97 99 98 94 90 96 95 98 97 87 82 81 84 90 96 98 97 92
61 63 66 71 72 80 90 98 100 100 100 100 98 98 96 97 98 100 100 100 100 100 98 96 94 98 100 100 95 91 88 86 85 91 85 87 98 96
59 62 64 67 67 73 83 94 100 100 100 100 100 98 98 99 97 100 100 100 99 100 98 96 95 97 98 100 95 94 89 87 91 91 84 80 83 87

GFSNE_925_rhum_078.txt.gz
RH
92 99 100 100 100 100 100 96 94 99 96 94 84 84 80 82 88 96 99 100 100 99 98 98 98 100 96 82 78 78 79 80 79 77 76 75 74 72
93 87 98 100 100 100 100 98 96 96 97 95 99 98 99 97 100 99 100 99 98 99 99 100 98 87 77 76 78 79 79 79 79 77 74 71 75 77
99 100 100 99 99 99 97 95 96 99 99 100 100 100 100 99 98 100 99 94 90 98 97 85 76 74 76 76 75 77 79 79 77 76 75 78 84 85
98 99 100 100 99 97 95 96 98 98 97 98 99 100 99 99 98 98 100 87 63 61 75 76 76 71 69 76 80 81 80 77 78 78 76 74 73 77
98 98 97 94 93 93 93 92 91 90 90 92 99 100 99 98 95 69 60 63 64 63 68 61 66 74 76 83 84 82 82 82 83 82 80 79 78 76
94 92 89 88 90 93 94 94 92 90 91 93 93 92 87 77 70 67 67 68 61 58 52 47 63 61 70 75 84 79 72 81 82 82 82 80 79 77
95 97 98 98 98 94 92 92 92 94 94 82 80 80 79 72 69 69 66 63 58 53 58 55 53 52 55 58 56 55 59 89 85 83 82 80 76 77
99 100 99 98 99 99 98 96 80 78 88 91 90 84 76 75 65 66 65 69 76 66 72 48 53 51 57 56 56 72 86 89 88 87 86 81 84 82
94 94 86 63 59 57 82 85 83 88 85 78 78 79 79 73 69 67 72 82 82 67 74 69 59 60 62 60 61 87 95 93 90 88 86 91 90 86
64 56 56 63 80 87 80 79 80 81 77 80 78 76 74 71 67 73 88 90 84 66 75 89 73 70 68 60 63 75 91 90 91 94 95 94 91 88
63 68 69 82 88 91 76 83 82 76 68 72 74 83 86 88 87 88 91 85 79 81 82 93 84 86 76 66 65 66 63 67 89 93 95 94 94 93
65 73 82 80 82 82 76 67 73 69 63 61 76 76 66 65 65 72 72 76 81 88 90 96 87 91 86 76 70 73 71 68 74 89 91 97 98 96
66 66 66 85 78 79 82 67 68 87 91 85 74 68 73 81 85 86 91 97 93 88 90 96 97 95 92 86 82 82 80 74 78 80 84 90 86 100
62 64 65 73 73 78 80 80 90 93 77 73 76 84 87 87 88 91 94 100 100 98 97 93 96 88 99 98 92 80 87 90 93 90 81 79 83 87
68 82 84 68 64 56 83 85 87 73 74 80 83 88 92 94 99 100 98 98 98 99 94 86 93 94 100 99 98 97 95 94 96 83 87 86 87 87
67 64 52 66 69 76 78 71 72 76 85 88 92 94 99 100 100 96 95 93 97 98 90 84 84 91 98 100 100 99 96 97 94 93 95 98 97 98
78 46 48 56 65 72 75 77 81 86 93 96 95 94 94 94 93 95 93 92 97 95 100 95 80 82 88 96 100 100 99 100 98 91 96 100 96 96
72 56 56 64 72 76 82 85 88 93 95 99 94 93 92 92 92 94 98 100 100 98 95 85 84 94 92 88 87 100 100 95 85 86 93 100 98 90
71 52 59 65 78 86 87 89 92 98 98 99 94 94 94 94 100 96 93 96 99 96 90 86 93 100 94 90 77 79 81 81 92 99 97 100 99 94
61 66 61 65 73 80 86 90 96 99 98 96 94 96 97 98 98 98 95 100 99 93 96 96 96 95 98 93 94 90 90 90 89 97 99 97 94 93
56 56 57 64 71 73 78 88 92 96 99 95 98 99 97 100 98 97 98 100 100 100 100 98 89 99 98 99 97 89 88 86 86 93 95 99 96 94
65 58 56 60 65 69 71 79 91 98 100 100 100 100 100 99 100 99 99 100 100 100 100 94 89 92 96 96 92 92 93 88 85 86 85 90 98 96
58 55 56 59 63 68 70 74 80 90 99 100 100 100 100 100 98 99 99 99 99 99 100 100 100 98 98 97 97 96 96 92 84 86 86 79 85 85

GFSNE_925_rhum_081.txt.gz
RH
93 88 92 99 94 98 100 100 99 99 96 96 86 86 89 94 98 100 100 99 100 98 98 95 97 98 99 98 98 95 90 86 82 79 76 75 74 73
89 95 97 99 99 97 100 99 99 99 99 98 100 96 94 97 100 100 100 99 98 99 99 98 99 99 97 89 85 81 79 79 78 77 76 74 73 74
99 98 97 98 100 99 96 95 94 94 99 100 100 100 100 100 100 100 100 100 100 97 98 98 97 85 79 79 79 77 78 78 78 77 75 77 75 81
98 99 99 99 98 96 96 98 98 98 95 98 100 99 99 99 99 100 100 100 95 67 77 80 79 78 76 75 80 83 82 81 82 83 83 81 79 76
98 98 99 98 96 95 92 90 90 88 88 89 99 100 100 100 100 98 96 70 62 61 69 70 67 74 75 79 87 89 88 88 88 84 83 84 83 80
94 93 92 91 91 90 90 91 91 90 92 92 95 96 92 92 84 72 69 66 63 60 57 51 52 53 60 74 77 80 70 72 83 85 86 85 83 81
97 99 100 98 99 95 91 92 91 91 89 80 81 81 80 76 73 70 67 63 58 50 52 54 56 49 50 54 55 55 54 72 91 88 87 84 81 79
96 98 98 98 98 100 100 98 86 73 80 85 89 84 80 75 69 68 66 65 70 61 68 54 52 53 58 58 60 76 88 93 94 92 90 87 82 85
95 90 68 59 58 58 77 75 87 91 87 77 76 76 76 76 72 69 69 77 81 72 78 63 61 59 61 59 59 63 86 97 94 95 94 93 88 91
54 52 56 70 89 78 73 76 79 79 77 79 72 69 67 67 67 68 85 92 84 71 78 86 71 69 62 57 60 66 94 90 83 90 95 95 94 92
62 64 71 83 89 92 65 77 79 75 71 81 85 89 93 88 85 85 89 96 78 77 82 89 88 85 73 62 64 64 81 63 80 91 94 92 92 91
64 73 84 82 82 81 73 62 61 67 64 61 63 77 70 67 68 71 75 78 81 84 89 90 89 88 87 69 66 62 63 66 66 90 94 98 97 95
60 60 60 85 79 78 80 60 74 88 89 83 74 70 73 81 86 89 92 94 94 89 86 96 99 92 88 86 84 84 81 77 81 82 81 84 87 100
55 58 64 71 72 78 80 73 88 92 75 72 75 79 83 86 86 89 93 98 99 98 95 94 99 95 95 96 90 82 88 92 90 92 76 71 78 85
62 71 86 80 69 54 75 86 88 78 73 79 83 86 92 94 98 100 98 97 93 96 97 100 99 98 100 100 97 98 99 93 93 83 79 80 77 76
60 63 50 69 68 69 80 76 71 74 82 89 93 94 98 99 100 98 96 96 93 89 91 89 92 97 97 100 100 100 100 99 95 100 81 83 79 84
80 58 45 51 58 67 73 75 78 83 93 93 96 94 93 94 93 93 93 92 99 97 89 80 81 86 89 91 100 100 100 100 98 86 91 100 95 96
78 66 50 56 62 67 75 80 84 89 92 92 96 94 93 91 92 95 98 100 100 94 93 84 83 91 93 81 78 96 100 100 85 84 90 100 98 95
79 67 50 55 58 74 84 86 87 90 95 97 94 93 90 94 97 94 94 96 96 95 90 87 90 100 96 94 79 78 81 84 87 95 96 100 100 96
46 58 64 60 58 68 76 86 89 90 94 94 94 92 93 95 96 96 95 100 100 94 93 92 93 93 100 94 93 91 90 96 92 96 98 94 100 98
65 60 49 50 53 62 70 74 78 94 93 93 93 96 99 99 97 96 98 100 100 100 100 96 83 96 99 99 97 89 86 88 91 93 94 100 96 94
59 64 57 52 53 58 63 68 71 76 93 89 93 99 100 100 100 98 98 100 98 99 100 92 88 91 100 100 94 89 91 92 83 84 90 92 98 95
40 49 51 50 52 56 61 65 67 69 73 88 91 100 100 100 100 98 97 99 100 100 99 100 95 97 100 100 96 93 95 95 93 94 87 82 82 82

GFSNE_925_rhum_084.txt.gz
RH
87 90 99 100 100 97 100 98 99 99 95 94 89 86 82 85 97 99 98 100 100 98 88 89 89 92 90 96 98 98 98 98 98 94 82 75 76 74
89 99 100 100 98 96 99 97 98 100 99 98 97 93 92 99 100 100 100 100 100 99 98 98 95 95 99 98 98 94 89 84 80 77 76 75 74 74
99 99 99 98 99 97 98 98 96 99 100 100 100 100 100 100 100 99 99 99 97 97 95 99 99 99 94 86 82 81 80 79 79 77 76 75 76 74
99 98 99 99 98 96 93 90 94 96 97 98 99 100 100 100 100 100 98 98 96 95 87 86 82 82 81 80 81 84 84 83 82 84 86 84 82 80
98 96 96 97 95 92 90 88 88 88 88 92 100 100 99 100 99 96 96 94 67 62 65 76 75 74 76 79 83 89 91 91 91 91 86 86 85 84
96 94 94 91 87 86 86 87 87 88 90 90 96 95 91 94 84 72 66 65 62 61 58 55 52 47 50 52 77 82 74 69 84 87 89 90 87 83
98 99 100 99 97 94 90 90 90 89 85 82 83 83 80 76 74 71 67 63 58 52 48 55 56 55 49 48 53 54 54 77 92 93 91 89 83 85
98 99 98 97 99 100 99 96 85 67 75 82 88 82 80 74 70 68 66 63 60 65 66 53 51 50 56 58 59 60 56 59 81 95 90 90 91 90
96 82 68 61 60 62 80 73 89 93 81 71 70 71 73 75 72 68 66 76 80 75 73 61 57 57 60 58 56 52 53 76 95 96 97 96 95 92
52 50 59 82 88 69 67 72 76 74 79 73 66 62 69 72 71 72 82 92 88 74 76 82 70 68 59 57 56 66 96 92 90 90 93 94 93 88
58 66 75 78 85 84 52 61 74 73 74 86 87 93 88 92 87 81 83 91 80 76 84 91 89 81 71 64 68 70 98 97 65 80 92 95 94 93
71 80 85 81 78 82 61 52 52 64 65 65 64 70 73 71 70 75 77 80 82 84 90 91 90 89 85 68 66 61 57 62 64 68 95 100 100 96
57 56 57 83 78 78 79 53 82 87 87 79 70 71 75 82 86 88 90 92 92 90 87 96 100 91 85 87 82 72 74 69 74 70 77 80 76 100
50 54 62 68 71 76 74 66 88 88 72 70 73 75 80 86 88 91 94 98 99 97 93 94 98 96 95 94 92 81 89 94 92 87 81 72 78 80
57 64 78 79 72 51 63 87 88 84 72 75 82 85 90 94 100 100 99 99 98 93 93 93 93 94 96 98 98 97 97 92 100 90 84 83 76 73
50 51 51 64 65 60 71 77 71 72 77 87 91 93 95 96 96 96 94 97 95 90 83 85 92 95 97 96 100 100 100 99 87 94 98 86 75 74
70 63 42 44 49 57 65 71 74 79 88 92 91 92 96 93 93 92 94 93 97 95 88 77 82 88 89 90 99 92 92 95 100 89 87 90 81 77
80 71 58 47 52 58 63 71 78 83 90 92 91 92 92 92 91 93 96 96 99 93 90 84 85 88 89 78 73 75 83 98 85 83 86 99 100 83
82 77 66 52 46 51 61 80 82 83 88 90 92 93 90 92 94 94 95 95 93 91 88 87 91 100 97 95 81 80 87 84 85 91 95 96 100 83
58 45 45 52 56 55 56 68 74 83 91 89 91 91 91 94 92 96 96 99 98 95 92 89 90 91 98 94 94 90 84 88 90 92 94 92 93 94
65 62 55 49 44 46 49 58 68 72 76 92 93 92 92 94 96 97 97 99 100 98 99 92 81 93 99 100 98 91 85 87 92 95 98 100 100 95
62 60 51 57 56 48 49 54 60 66 67 70 86 94 91 90 96 100 100 99 97 96 96 90 85 88 100 100 97 96 95 90 89 85 85 90 99 95
35 35 36 38 45 46 49 53 56 59 63 65 67 73 92 96 97 100 100 100 96 100 99 100 97 98 98 100 98 98 94 92 93 92 86 86 92 92

GFSNE_925_rhum_087.txt.gz
RH
99 98 100 100 99 99 100 100 98 96 88 93 96 89 90 88 90 97 99 99 100 100 100 99 88 82 83 89 97 99 100 99 98 96 94 91 82 80
90 95 100 100 100 99 98 97 99 98 97 98 99 98 95 98 99 100 100 100 100 100 95 85 88 89 95 96 98 95 91 88 86 82 77 76 76 76
94 94 99 99 99 99 99 97 95 96 98 100 100 99 99 99 99 99 99 99 97 93 93 96 99 98 97 91 86 85 83 83 81 80 77 78 78 80
99 98 98 97 96 96 93 90 91 95 96 100 100 100 99 99 99 99 99 98 94 94 93 87 86 85 85 84 84 85 85 84 84 87 88 88 86 83
98 98 98 96 94 90 86 86 86 86 88 97 99 99 96 97 97 96 94 91 76 64 60 62 67 66 64 63 78 85 90 93 93 94 92 88 88 86
98 97 94 91 88 85 84 84 85 86 88 93 99 99 94 94 85 76 72 61 59 59 56 54 50 50 47 42 46 57 65 61 68 87 89 91 87 85
92 92 91 90 87 87 86 86 85 85 87 93 90 88 85 78 74 68 68 59 57 48 46 48 50 49 49 47 46 50 54 76 93 95 93 91 88 86
99 99 99 99 99 100 97 88 71 61 67 80 84 77 78 75 68 71 70 66 50 55 67 66 51 53 53 54 56 58 60 58 61 87 94 90 96 92
98 93 84 74 71 71 82 83 85 83 59 56 68 71 74 70 68 66 66 71 74 83 80 69 59 66 58 58 56 53 53 65 97 95 95 95 94 93
62 56 60 70 61 55 58 64 69 72 70 64 58 60 67 69 71 74 81 87 88 78 74 79 74 74 64 58 56 71 83 94 96 90 88 95 94 94
58 70 73 80 94 49 47 61 71 74 90 95 89 96 85 97 86 87 90 93 74 78 83 92 88 88 75 65 65 81 96 96 87 65 91 90 97 96
67 78 69 73 79 79 47 45 58 65 65 64 63 66 69 82 70 75 77 89 90 86 91 98 98 94 85 69 67 66 60 59 58 60 60 79 98 95
57 60 72 85 76 80 59 50 66 75 80 70 68 71 76 80 82 84 86 88 98 98 97 100 100 98 92 89 87 76 78 66 62 66 71 70 72 98
48 50 53 70 70 78 72 77 96 80 66 68 71 75 79 83 86 88 91 95 98 98 98 94 100 100 96 91 87 88 91 96 90 84 91 69 69 73
49 57 74 83 75 50 77 85 94 80 69 71 78 82 86 90 98 98 98 97 96 96 92 91 93 100 100 99 97 97 100 93 96 85 73 83 79 78
68 61 52 53 55 54 73 82 71 67 69 76 84 88 92 98 99 96 100 100 100 97 82 83 87 91 98 100 100 100 99 100 88 98 100 99 87 93
53 58 42 41 48 52 58 64 69 73 84 83 86 92 96 98 98 99 99 98 100 100 94 78 81 86 86 87 100 98 96 98 98 94 100 99 91 98
80 63 54 44 44 50 56 60 68 78 78 85 88 91 98 99 99 100 95 94 100 100 98 89 86 90 95 84 73 82 89 97 87 96 100 100 98 88
82 74 67 53 44 45 49 55 62 70 78 83 84 88 96 100 98 97 99 96 100 100 94 89 90 100 95 89 81 82 99 99 96 94 95 97 98 89
73 65 53 44 48 49 48 48 51 66 76 83 87 87 88 100 100 98 100 98 100 100 100 94 91 95 100 91 94 91 85 80 92 96 96 96 98 99
54 50 48 44 43 40 40 43 46 53 61 71 77 85 88 99 98 97 98 100 100 100 100 98 90 95 99 100 98 89 88 91 95 98 100 100 96 95
55 54 50 51 50 50 48 44 47 50 55 62 62 66 78 96 99 100 94 100 100 100 100 90 85 92 99 100 97 95 94 93 94 98 96 98 99 92
43 42 38 36 38 39 47 49 47 48 50 53 58 61 65 74 92 100 98 100 100 100 100 100 99 100 100 100 100 100 98 96 91 92 90 88 85 90

GFSNE_925_rhum_090.txt.gz
RH
100 100 99 99 98 99 100 99 92 76 73 92 91 98 92 96 99 99 98 100 100 100 100 100 98 92 88 86 82 82 87 96 96 96 93 90 89 87
100 100 99 100 99 99 96 94 98 96 90 97 100 100 97 100 100 99 99 100 99 99 98 97 91 86 83 83 84 88 91 90 88 86 82 78 76 76
98 98 100 99 98 97 96 96 99 95 89 99 100 97 99 99 100 99 98 98 95 94 90 88 86 85 87 90 87 87 86 86 86 84 79 77 85 88
99 99 99 98 98 95 99 99 99 97 98 98 99 99 99 97 97 95 94 93 92 89 88 88 86 86 86 85 84 83 82 84 85 88 85 85 84 83
97 97 96 96 95 93 94 91 89 90 94 95 99 99 97 96 95 93 85 81 79 73 65 61 62 63 65 58 50 70 86 92 95 94 94 91 89 87
96 96 95 95 94 93 90 91 91 87 90 90 92 94 88 90 85 74 68 65 61 58 55 50 48 53 43 42 34 46 61 63 65 82 87 90 91 88
96 93 92 88 84 86 92 89 90 84 82 90 88 82 82 75 67 64 56 54 53 63 56 53 57 58 60 57 47 45 46 50 74 94 95 92 91 89
100 100 100 100 100 94 78 75 80 79 82 79 82 67 62 59 61 57 58 54 43 69 62 52 64 58 62 64 61 52 53 61 66 85 92 92 91 92
98 99 98 96 94 94 95 90 80 46 60 59 53 50 55 58 67 77 68 67 55 62 72 58 63 58 63 63 59 51 52 53 82 93 92 92 94 91
89 83 74 68 59 68 70 76 78 73 67 61 60 63 66 69 72 71 76 74 75 73 79 71 65 63 64 68 68 69 85 94 95 96 95 95 95 95
66 78 80 80 56 48 77 74 67 84 89 68 70 63 66 80 80 83 86 79 66 63 77 79 75 80 74 72 67 70 92 93 94 87 93 96 96 98
72 74 66 70 91 48 54 55 58 61 73 72 72 65 76 85 69 86 87 94 84 81 88 92 94 89 86 76 76 78 74 75 71 60 87 68 76 90
69 74 77 81 77 78 50 48 48 64 70 69 65 72 78 84 86 91 91 96 99 93 91 96 100 99 92 86 81 82 83 82 77 80 84 90 91 89
54 57 60 70 74 78 70 63 93 75 67 65 70 74 80 88 97 97 98 100 100 100 100 95 100 99 97 92 85 82 84 90 91 92 92 94 91 94
55 59 61 77 73 69 60 81 95 76 66 70 73 85 95 100 85 97 98 96 94 95 97 97 99 99 98 98 96 96 95 91 95 98 98 100 100 98
50 78 69 62 73 58 70 89 84 72 69 76 80 90 99 100 100 100 100 100 100 100 99 83 84 88 100 100 99 98 98 97 97 97 97 100 100 100
70 67 60 58 64 64 67 71 71 73 81 80 90 91 90 92 95 99 100 100 100 98 98 100 100 97 99 100 100 95 91 93 95 99 100 100 97 97
69 59 48 43 46 47 54 61 67 75 79 89 93 93 92 95 96 98 100 100 100 98 98 100 100 100 93 89 86 99 94 93 97 98 99 98 96 92
79 63 60 58 53 55 58 64 73 77 87 97 97 97 97 96 98 95 97 99 99 97 98 100 100 100 92 86 77 85 97 98 95 92 91 92 91 92
78 77 78 72 64 63 66 71 77 83 90 94 97 97 98 96 94 91 94 97 97 96 98 99 100 100 98 90 91 90 89 86 94 94 93 92 92 94
78 83 76 66 56 54 59 66 66 81 86 92 95 97 97 96 92 90 87 85 86 90 93 92 92 99 100 100 98 91 87 88 90 97 99 99 96 90
74 66 57 47 47 45 46 46 47 53 59 78 76 92 96 95 93 91 88 86 84 85 88 93 97 100 100 100 94 91 90 88 92 95 98 100 98 91
73 61 54 50 47 46 46 49 48 49 46 47 67 78 83 94 90 90 88 87 88 89 89 88 88 89 94 96 96 95 97 93 88 88 87 90 94 95

GFSNE_925_rhum_096.txt.gz
RH
96 94 96 100 97 92 86 86 88 97 99 94 98 100 99 98 99 98 98 99 98 95 96 97 95 94 92 88 85 82 80 79 82 89 90 88 84 81
99 100 100 99 99 96 98 95 94 94 96 95 100 99 99 96 97 98 98 97 95 92 92 96 92 90 88 86 83 81 83 88 90 90 88 84 80 88
100 100 100 100 100 99 96 93 94 96 98 100 100 100 97 97 94 97 96 94 93 87 96 92 87 84 84 84 85 85 87 90 92 89 86 83 85 80
100 100 100 99 97 94 91 91 92 89 92 95 99 98 97 97 94 94 91 89 87 84 86 87 85 83 84 83 82 81 77 65 64 88 90 85 83 84
99 98 96 96 95 93 93 94 97 97 94 91 97 97 93 90 91 89 86 82 75 71 66 61 55 51 47 45 45 41 41 60 63 74 84 92 93 92
95 94 94 94 94 91 91 92 91 91 95 92 91 92 89 90 88 85 72 66 61 57 51 48 40 35 35 34 34 33 32 38 49 56 70 81 80 93
95 94 94 94 94 93 91 90 88 87 91 90 92 91 86 85 78 68 62 55 56 52 40 44 48 40 46 55 48 47 40 42 47 71 83 95 98 96
94 94 93 94 95 91 89 87 85 83 87 89 90 83 83 75 66 58 55 54 57 61 47 36 54 49 59 59 61 60 51 47 48 54 64 88 96 97
98 97 98 94 91 86 84 80 80 83 85 87 83 73 63 60 57 57 55 55 59 64 54 61 60 55 60 62 62 62 59 49 48 59 94 80 84 97
100 99 98 96 92 78 68 49 48 55 59 55 54 52 54 53 52 49 54 61 63 67 59 70 71 66 63 66 69 66 56 87 76 96 90 91 98 98
99 90 88 82 77 67 53 63 59 54 58 56 55 53 54 55 55 56 72 79 76 68 70 68 84 80 64 69 74 66 61 85 93 96 99 93 96 97
76 75 76 63 50 78 56 66 69 69 55 50 45 50 42 49 70 78 83 81 84 82 86 74 86 81 75 82 80 79 79 76 85 87 89 92 90 90
69 65 72 91 59 50 56 59 56 58 60 57 56 59 73 62 64 65 68 74 87 93 98 89 92 92 91 91 84 74 80 80 80 81 82 86 96 94
60 66 65 81 82 66 46 52 65 59 56 59 61 67 72 79 78 72 71 76 81 82 96 98 97 93 91 90 89 82 75 75 75 87 92 92 87 96
56 57 63 78 76 78 66 74 78 69 62 61 64 71 76 80 86 83 76 85 88 91 94 100 100 97 92 94 93 96 99 93 86 96 94 90 97 99
55 60 65 75 68 56 76 73 89 64 62 63 68 73 79 86 89 84 94 97 98 98 98 99 100 93 90 93 98 100 99 98 81 80 89 93 98 98
50 62 78 75 81 74 59 66 79 86 75 68 76 79 86 86 88 92 95 95 96 93 94 92 95 97 99 100 100 100 98 92 82 88 95 91 95 94
75 71 70 59 54 57 58 59 79 78 66 62 68 77 87 91 94 90 93 94 91 90 90 93 92 95 93 93 90 95 95 88 83 90 93 90 87 84
78 69 56 51 49 48 56 55 54 56 62 66 78 81 89 92 93 89 92 91 90 92 90 92 91 94 97 93 86 90 99 93 94 96 93 93 90 80
79 75 63 54 53 47 42 46 47 52 59 63 72 79 87 90 91 91 90 89 90 88 88 91 90 88 97 90 87 86 86 89 85 83 89 86 87 86
83 81 72 62 61 56 54 49 45 50 56 66 70 73 77 90 94 90 91 93 94 92 90 89 84 86 94 99 99 94 87 81 95 100 97 97 97 91
76 70 67 63 69 68 60 54 52 54 58 65 65 63 64 74 85 84 86 89 85 84 87 82 85 88 90 90 94 95 89 83 80 80 82 87 99 93
74 68 65 64 64 63 62 59 54 46 47 51 57 60 62 72 72 79 81 83 86 88 90 89 89 88 90 91 95 97 97 94 92 91 88 75 80 89

GFSNE_925_rhum_099.txt.gz
RH
92 91 92 95 96 94 95 87 85 99 99 100 100 99 100 100 100 98 98 97 95 90 88 94 99 99 96 93 90 86 84 80 79 84 90 88 85 82
98 97 100 100 100 100 99 93 92 91 96 97 99 99 100 99 96 97 99 94 94 90 90 90 91 91 90 88 86 82 83 84 88 90 89 85 84 90
98 94 100 98 100 100 99 98 94 93 97 100 100 100 100 95 91 93 94 91 91 88 88 95 89 86 85 88 88 90 91 93 87 86 87 85 88 84
98 100 100 97 100 100 99 96 91 93 96 99 99 100 98 98 94 92 96 91 90 88 87 88 89 89 89 87 84 82 82 78 78 79 75 85 85 85
99 100 100 100 100 97 94 92 92 93 91 88 98 99 97 99 97 93 88 85 81 77 73 67 64 62 60 58 54 49 48 49 39 39 51 68 83 91
98 98 98 96 96 94 93 93 91 97 98 92 92 94 90 93 91 88 81 73 62 58 52 49 44 40 38 38 36 33 34 33 45 54 60 66 65 84
93 94 94 94 95 94 92 88 90 92 97 95 90 92 90 92 91 87 75 65 61 54 43 41 47 45 44 62 50 51 41 41 48 68 72 76 86 98
94 96 95 95 93 94 94 91 88 88 94 91 91 92 89 85 83 70 63 57 58 58 45 42 51 52 56 57 57 57 52 49 50 56 63 69 88 95
92 93 94 95 94 92 91 89 87 87 88 86 91 89 83 78 70 61 56 54 54 61 51 59 60 57 61 62 63 62 60 56 53 55 86 84 74 78
96 98 98 93 91 89 87 82 81 82 83 85 86 80 71 63 59 54 46 50 60 63 56 66 70 67 66 66 69 67 58 84 75 98 87 86 90 98
100 100 99 96 89 75 63 52 52 60 58 54 56 53 52 52 46 43 51 58 78 72 69 64 74 73 66 71 74 71 66 83 93 95 97 94 95 92
97 87 91 87 80 79 54 50 52 61 58 60 73 64 64 82 61 58 58 77 80 80 80 79 83 68 68 82 81 78 74 74 85 91 94 95 95 92
80 77 79 72 80 82 60 56 52 54 55 46 49 54 55 63 65 67 68 67 78 86 91 84 87 82 88 86 76 78 80 79 78 77 78 76 81 98
70 66 72 94 82 69 57 51 56 56 59 56 57 66 70 69 67 64 62 62 66 76 85 91 85 90 92 89 89 84 81 68 70 82 79 81 84 93
56 56 60 82 83 84 49 67 75 64 61 60 61 65 67 71 78 78 73 70 73 80 84 88 100 100 100 93 93 92 99 76 79 73 82 84 90 96
53 57 71 83 78 69 81 75 78 68 62 58 62 69 74 79 84 87 79 87 98 98 98 99 100 100 96 93 95 97 94 100 87 78 82 83 86 92
53 58 67 79 78 70 67 76 81 79 66 61 64 70 75 82 87 82 88 93 96 94 94 95 96 96 94 97 98 97 100 100 82 87 88 87 90 80
69 59 71 75 76 77 72 59 67 81 84 74 67 74 78 83 83 89 91 91 93 91 90 89 92 92 92 87 94 100 100 96 86 93 98 100 94 79
88 84 73 70 64 53 52 58 51 62 72 73 64 66 73 81 89 94 93 89 91 91 89 91 90 90 100 98 81 82 94 93 91 91 89 80 85 77
94 90 75 63 52 46 45 48 52 52 59 64 62 64 74 79 91 94 95 88 88 90 90 86 88 91 93 92 83 81 80 87 90 86 84 86 81 77
89 87 83 73 62 49 45 45 40 42 45 49 54 60 66 78 86 87 88 89 90 91 92 90 78 79 89 93 99 96 89 85 79 82 86 98 98 91
87 80 72 66 62 57 52 53 53 51 48 49 55 56 60 68 79 78 87 91 87 92 92 89 90 87 89 92 97 94 88 80 80 87 89 98 99 93
78 76 64 54 52 52 54 60 63 58 52 47 48 51 57 65 64 70 72 74 79 80 79 84 88 91 91 90 92 96 96 91 85 83 84 78 90 98

GFSNE_925_rhum_102.txt.gz
RH
96 95 94 92 93 90 91 91 90 99 98 100 98 99 99 99 100 99 98 97 92 92 87 87 97 100 99 94 91 88 86 83 79 76 88 88 86 84
78 99 100 99 99 100 100 100 96 91 98 99 100 100 99 100 100 98 97 95 93 92 90 89 90 94 92 91 88 84 82 85 86 89 89 86 86 90
86 98 100 100 100 100 100 100 100 99 97 100 100 100 100 100 97 95 94 91 91 89 88 89 90 90 87 87 87 85 85 86 85 83 84 86 89 87
100 100 98 100 100 100 100 100 99 100 97 99 100 100 100 100 97 95 89 91 88 90 90 88 94 98 90 85 87 85 82 82 84 86 83 85 84 85
100 99 93 100 100 100 100 100 97 95 95 95 100 100 99 100 100 97 92 88 84 88 87 82 82 81 80 76 73 70 63 54 45 38 40 57 67 86
90 99 99 99 100 100 99 97 95 96 96 92 93 97 94 100 98 93 88 84 72 66 61 57 50 47 44 43 42 40 38 36 36 47 56 58 59 69
87 94 96 97 98 98 97 95 94 93 97 95 93 94 92 98 96 90 85 78 64 60 52 47 47 42 41 52 47 45 39 38 44 67 78 76 79 87
94 94 94 96 98 98 97 95 92 90 96 97 92 91 90 90 92 89 80 70 64 59 50 44 49 50 51 55 56 58 55 53 57 67 66 68 77 86
92 91 94 96 97 96 94 92 92 92 91 93 90 91 92 89 89 84 72 62 54 57 52 50 57 56 60 61 70 63 61 57 58 54 72 91 75 71
98 94 94 93 94 96 94 91 88 87 88 89 87 86 85 81 78 73 65 58 60 57 51 65 67 64 65 66 73 68 61 65 77 86 98 82 77 79
100 100 100 98 93 90 87 82 79 75 69 75 83 81 74 67 64 59 55 50 72 67 63 60 73 71 69 66 73 70 66 76 94 97 91 98 94 90
100 99 99 98 93 87 67 58 61 71 65 68 72 68 58 53 49 48 43 48 69 76 69 71 76 65 81 80 76 74 71 72 87 92 96 97 98 98
96 90 82 87 83 86 75 57 50 56 68 68 69 71 72 62 58 60 59 62 67 77 75 76 75 70 73 81 83 79 75 75 75 74 72 71 72 87
84 81 77 84 82 82 83 57 61 59 59 53 62 61 61 62 65 63 65 69 71 65 71 76 74 78 80 84 77 84 86 82 72 75 76 76 81 87
61 61 59 76 93 83 72 52 70 78 64 59 58 63 62 62 70 69 68 66 64 68 75 84 86 84 94 91 87 88 90 83 81 76 84 82 80 85
64 56 60 66 83 79 75 70 72 77 63 61 56 58 66 77 79 82 82 77 81 88 88 92 100 100 97 91 90 88 88 93 87 90 86 79 76 84
68 56 68 80 89 81 73 77 78 78 71 63 62 64 71 77 83 89 88 85 88 93 95 96 96 97 95 94 95 94 95 100 97 83 89 89 78 78
79 61 68 72 76 79 80 68 75 77 84 66 62 62 68 76 84 90 83 87 91 95 94 92 92 93 94 87 90 98 100 100 93 93 95 96 82 63
83 77 71 73 80 80 76 72 64 60 66 83 77 67 67 74 87 89 85 91 92 90 90 89 91 91 95 94 76 96 98 96 94 85 77 79 79 56
92 92 86 84 73 61 59 55 48 56 56 60 78 80 70 70 85 90 89 93 93 88 90 91 89 87 92 91 74 72 86 88 85 89 81 70 73 67
93 99 96 91 84 74 61 49 43 43 46 53 62 73 67 67 75 79 82 89 95 92 91 86 67 74 83 89 100 94 77 76 80 86 84 95 96 94
86 80 83 83 80 74 69 64 54 47 45 43 47 49 51 58 68 77 83 89 96 98 84 68 75 87 91 96 98 96 90 84 76 80 85 96 96 96
89 76 73 66 59 58 58 56 57 56 52 51 48 46 48 54 56 64 74 76 81 83 84 85 86 89 91 89 92 94 97 91 86 86 75 72 72 88

GFSNE_925_rhum_105.txt.gz
RH
94 95 97 99 99 99 100 97 92 99 98 99 94 98 96 96 98 99 97 96 91 97 91 85 94 94 98 92 90 92 90 85 81 73 80 89 85 85
86 88 90 92 93 93 98 99 100 98 98 99 100 100 100 100 99 98 98 94 92 93 91 86 90 93 96 93 90 86 83 88 94 94 90 85 88 88
83 91 100 98 98 93 100 100 100 100 99 100 100 100 100 100 100 98 94 96 92 93 88 87 87 89 89 88 84 81 84 82 84 84 83 86 90 89
89 99 99 95 95 99 99 100 99 99 99 99 100 100 100 100 100 97 94 91 90 93 87 88 88 92 90 88 85 81 82 82 84 84 87 91 90 85
94 99 100 93 95 99 100 100 100 100 100 99 100 100 100 99 100 99 94 92 90 93 93 91 89 90 88 87 84 82 80 74 63 50 44 59 61 58
94 93 94 98 100 100 100 100 100 100 99 96 99 100 98 100 100 97 91 87 84 83 80 76 69 67 63 59 52 47 42 37 33 33 38 45 51 65
93 93 93 94 97 100 100 100 100 100 100 98 96 96 96 100 99 97 90 84 76 69 62 57 52 44 42 44 40 38 34 31 34 47 68 68 70 76
92 93 94 94 95 98 99 99 99 98 97 100 95 93 92 92 99 94 88 80 72 66 59 48 46 46 43 46 49 50 50 46 51 74 68 64 70 76
94 93 90 89 95 97 96 94 92 95 97 96 96 92 88 86 88 92 85 77 62 61 58 45 50 51 54 56 72 59 58 56 54 58 66 81 74 73
95 97 96 94 94 95 96 93 91 90 92 94 96 92 91 91 88 87 87 76 64 56 55 53 55 59 62 62 74 70 63 59 74 78 97 93 76 72
99 100 99 100 99 98 95 92 87 82 80 86 90 88 86 82 85 85 75 67 69 62 55 53 67 68 67 67 74 74 68 70 96 98 99 91 94 97
99 100 99 100 99 99 84 76 81 79 74 71 76 76 72 71 70 68 64 61 57 68 58 57 72 69 67 70 72 75 71 70 94 97 97 98 97 99
96 97 97 98 100 99 93 67 57 60 72 72 69 70 67 65 56 54 51 47 43 61 62 63 74 68 66 84 80 77 75 73 72 76 79 76 74 83
84 93 96 93 93 89 95 82 67 64 64 71 72 72 73 68 65 64 62 61 64 62 60 66 65 63 65 76 71 78 79 76 73 71 71 73 76 78
79 82 65 71 97 84 80 72 78 86 67 60 65 57 52 64 71 67 67 67 65 66 70 69 70 67 67 66 74 81 75 76 80 79 77 80 74 70
85 80 58 61 62 87 83 75 68 70 75 64 54 57 71 72 74 70 70 66 66 71 73 76 78 77 78 78 82 82 80 80 86 94 95 86 78 75
89 77 64 65 82 89 82 74 70 78 82 74 70 62 66 74 80 82 85 80 76 80 89 96 99 96 94 92 93 84 83 90 92 80 86 85 76 76
97 86 74 61 74 85 87 82 74 79 82 80 68 62 70 73 79 88 92 87 82 84 89 90 93 96 95 80 79 90 94 99 100 88 93 96 77 59
94 91 83 72 61 66 78 80 88 80 75 81 80 64 65 67 83 87 90 88 86 85 84 90 91 93 97 97 68 95 93 96 88 90 83 76 82 54
93 92 90 82 72 70 64 65 71 72 72 66 77 83 74 69 80 90 91 88 85 84 87 89 92 90 91 85 68 67 74 76 88 82 76 70 61 63
91 90 94 91 88 84 82 78 66 57 50 52 59 61 75 81 77 79 83 87 84 88 91 86 71 72 85 87 96 87 65 70 73 76 74 88 86 86
92 84 85 84 84 82 80 78 78 73 64 52 49 52 55 69 78 72 71 79 91 99 83 73 74 79 95 99 97 93 84 70 69 77 85 88 92 94
99 99 94 87 80 75 75 76 73 68 67 65 55 48 46 56 57 61 68 72 77 84 94 86 84 88 88 90 97 97 91 84 80 76 67 66 72 90

GFSNE_925_rhum_108.txt.gz
RH
100 99 100 99 99 100 100 98 99 97 98 95 92 96 97 96 96 94 93 90 90 91 94 88 83 89 92 93 92 96 96 94 89 79 68 71 87 90
77 78 82 84 88 95 97 100 100 100 96 95 99 98 99 100 100 100 96 94 90 86 89 90 84 92 93 95 92 88 87 86 92 94 92 89 92 92
80 85 96 99 99 93 92 100 99 100 100 100 100 99 100 100 100 100 98 95 93 88 92 90 86 88 89 95 91 92 97 98 98 95 91 92 92 90
84 92 100 99 99 92 93 94 100 100 100 100 99 100 100 100 100 100 97 94 91 89 90 89 86 88 91 97 90 88 88 96 97 88 97 97 94 85
85 91 98 98 96 95 99 99 100 100 100 100 100 99 99 100 100 100 98 93 94 91 95 91 87 91 92 90 86 84 83 82 78 76 79 83 79 61
80 88 93 93 97 99 99 100 100 100 100 100 100 100 99 100 100 99 98 94 98 96 92 88 85 86 85 82 77 75 66 54 40 33 29 31 37 52
80 87 92 94 95 98 99 100 100 100 100 100 100 99 100 100 99 99 95 89 84 83 80 79 72 64 62 62 48 40 36 34 34 40 52 48 52 64
83 88 91 90 89 93 97 98 100 100 100 100 99 96 95 98 100 99 94 81 79 73 71 65 59 51 44 45 45 40 40 37 41 72 70 65 65 67
87 92 93 92 88 88 92 96 95 95 97 100 100 97 92 89 90 100 94 85 77 74 65 58 52 49 48 50 61 62 55 53 56 70 72 62 63 71
90 94 98 98 95 94 96 94 92 90 89 94 96 98 97 90 88 87 89 85 75 66 64 48 54 54 55 62 74 71 59 57 57 58 73 96 80 73
91 94 99 98 100 100 97 95 92 87 84 85 94 94 92 92 93 89 91 80 73 64 60 50 59 61 64 65 76 78 65 61 80 81 97 100 83 87
87 94 98 98 100 100 95 82 80 82 80 79 82 87 84 83 89 91 89 82 67 66 60 50 68 67 69 68 72 76 71 68 90 96 97 92 95 98
91 85 91 94 98 99 100 94 70 63 77 76 75 75 77 79 73 71 68 72 64 41 45 51 67 70 60 78 78 76 74 71 82 91 94 95 93 85
97 83 84 90 90 98 99 97 79 75 64 70 73 76 73 65 60 56 53 56 56 48 46 56 59 59 59 78 80 79 78 76 74 73 73 73 72 71
99 89 83 67 72 95 85 83 78 85 76 69 68 66 74 73 68 73 72 69 68 66 66 69 64 58 57 53 63 71 82 80 78 77 74 73 74 73
100 96 84 61 67 70 92 80 77 69 78 75 63 60 67 68 76 72 68 69 67 74 76 75 70 66 67 66 66 66 72 69 75 75 78 82 80 73
90 94 89 73 62 75 84 82 76 68 78 80 73 68 68 77 78 75 74 71 67 70 73 76 76 80 82 78 75 74 74 78 78 82 87 88 78 71
100 99 93 81 73 66 75 83 82 76 76 84 82 73 71 71 77 83 86 84 78 76 80 88 91 99 97 72 75 82 83 82 87 91 90 89 72 68
100 98 97 91 85 73 62 63 66 71 77 82 89 84 79 77 82 84 88 92 92 85 81 84 89 95 96 95 63 91 78 70 82 92 89 95 83 52
100 97 93 92 90 81 73 67 64 62 70 76 74 77 86 73 79 86 84 90 91 87 85 86 90 89 92 81 61 65 77 78 81 80 80 73 66 59
96 92 96 96 93 88 85 84 82 79 67 60 64 68 69 81 81 77 77 83 88 90 88 87 73 69 83 94 92 81 65 65 66 72 72 76 75 78
99 99 93 95 90 85 84 83 83 84 82 78 70 57 54 61 73 82 83 82 87 95 81 67 74 84 99 92 92 86 76 68 70 70 78 74 77 76
99 100 100 99 99 99 91 86 81 77 74 74 70 68 61 56 57 62 72 79 80 81 93 85 83 90 90 87 92 92 91 87 76 72 68 66 73 88

GFSNE_925_rhum_114.txt.gz
RH
100 99 98 97 96 97 98 98 91 80 71 64 84 86 91 95 96 97 95 96 98 100 97 96 87 83 81 80 90 97 96 93 100 100 99 87 95 94
94 94 88 81 96 98 100 99 98 97 81 80 89 88 92 93 98 100 100 98 100 99 98 96 90 86 84 83 84 97 98 100 100 99 98 97 96 96
82 90 90 90 90 92 98 99 98 99 95 88 94 94 97 100 100 100 100 100 100 100 96 91 89 89 89 89 90 93 97 93 98 95 96 99 99 94
88 87 86 87 90 98 96 96 100 100 100 99 99 97 99 100 100 100 100 100 99 100 95 90 91 92 89 89 93 99 100 100 98 96 99 97 98 93
85 85 84 87 94 97 99 99 99 99 99 100 99 99 99 100 100 100 100 100 99 99 98 99 99 94 88 89 93 99 94 91 92 95 100 97 95 90
66 69 72 80 90 94 97 94 99 98 99 100 100 100 100 100 100 100 100 100 100 100 100 99 99 94 92 92 94 93 93 91 91 98 99 94 89 85
68 69 70 74 82 89 96 97 98 99 98 100 100 100 100 100 99 99 100 100 100 100 100 99 97 93 94 92 91 93 88 83 79 83 88 83 64 79
72 73 74 81 88 87 87 86 90 99 98 100 100 100 99 100 100 100 100 100 98 98 99 95 88 85 84 84 78 64 56 55 57 60 60 53 53 84
73 76 86 85 90 92 89 87 91 94 98 98 99 100 100 99 99 100 100 99 92 87 91 82 82 76 69 65 59 52 45 47 52 80 94 96 77 92
76 79 92 93 94 92 95 96 97 91 90 91 91 93 99 99 100 99 99 99 94 86 83 78 74 70 70 58 48 67 64 58 66 96 97 89 79 91
77 79 89 94 91 88 92 88 90 90 88 90 90 91 95 97 99 100 100 99 90 83 79 67 72 70 76 71 78 85 80 65 61 70 95 97 96 80
80 80 78 82 88 97 100 94 86 80 79 81 80 81 91 96 99 100 100 98 88 87 80 66 69 74 81 77 90 89 87 71 66 77 93 95 99 95
88 88 81 74 78 90 99 99 92 84 78 72 72 71 82 88 87 90 96 97 92 83 75 70 71 79 82 90 89 96 84 84 74 94 97 97 99 93
94 93 91 82 80 85 96 99 96 92 82 77 70 70 68 68 68 72 75 88 94 92 73 58 56 62 71 89 86 85 85 84 74 89 95 96 93 94
99 98 99 91 81 76 85 98 96 92 86 82 81 70 64 65 64 62 60 67 71 70 63 57 57 51 60 75 89 92 97 79 74 74 85 90 90 89
100 100 100 95 88 73 63 85 88 81 80 80 82 82 65 62 67 67 75 76 86 76 70 67 63 61 62 64 64 80 86 82 77 73 72 71 70 68
97 99 99 96 93 84 79 79 82 82 82 82 87 91 92 87 86 68 74 84 98 99 96 79 77 74 69 66 68 74 74 69 61 68 77 76 72 66
100 97 94 93 93 90 80 73 75 80 82 87 93 95 95 98 98 93 81 90 95 94 96 98 84 85 80 61 57 81 82 80 73 67 69 88 88 68
100 100 99 99 99 94 93 89 87 82 74 74 87 96 97 99 98 99 99 97 95 95 98 90 99 97 83 73 67 65 92 76 76 93 94 94 82 70
99 99 99 94 92 94 94 94 97 89 71 67 81 88 92 98 100 98 97 94 93 95 98 100 99 97 88 78 79 76 61 92 92 95 96 81 64 51
99 100 99 99 98 94 95 99 99 91 82 80 81 79 79 96 98 97 97 94 93 94 93 95 82 78 81 75 74 72 56 48 63 65 68 84 89 82
100 100 100 100 100 100 100 100 100 98 95 92 89 87 85 85 96 95 94 95 93 93 92 89 91 85 93 94 83 80 81 63 58 55 58 58 67 84
100 100 100 99 100 100 100 100 100 100 99 97 94 90 88 99 99 96 92 92 92 93 97 96 100 100 100 97 95 93 88 87 76 70 58 53 52 48

GFSNE_925_rhum_117.txt.gz
RH
96 95 96 93 99 96 97 92 95 83 74 60 78 86 88 89 90 93 99 96 100 100 100 97 90 90 88 84 80 79 79 86 78 92 96 99 87 97
98 98 98 97 86 92 95 96 95 89 84 69 81 90 87 89 92 97 100 97 100 100 100 99 94 92 90 88 86 83 94 100 99 100 100 98 100 99
91 87 86 85 85 87 92 94 94 92 93 81 87 88 89 98 100 100 99 100 100 100 99 98 93 85 86 88 87 87 97 90 98 97 100 100 95 91
84 80 81 81 82 88 92 88 92 94 98 89 92 94 100 100 100 100 100 100 100 99 98 96 91 90 89 90 88 92 100 99 95 92 96 92 89 94
76 78 80 82 83 91 91 95 97 97 95 99 97 94 94 98 99 100 100 100 100 100 100 97 94 94 91 88 94 97 100 96 96 99 100 97 92 87
74 78 80 82 84 88 91 90 92 94 92 91 94 100 100 99 100 100 100 100 100 100 100 100 98 95 92 91 91 97 97 93 94 99 100 98 91 89
69 71 72 72 74 80 84 91 94 96 94 93 93 99 99 99 100 100 100 100 100 100 100 100 99 94 96 94 89 92 91 92 94 99 98 97 85 83
71 69 70 70 74 78 80 81 82 93 95 93 93 100 99 100 100 100 100 100 98 99 100 100 99 96 93 92 87 89 88 84 78 83 88 83 68 82
68 69 75 75 78 87 88 83 85 87 90 95 99 99 100 100 100 100 100 100 98 94 100 98 96 91 85 83 84 74 61 55 62 60 57 56 65 87
70 75 82 87 89 90 94 92 91 94 89 90 91 90 91 94 100 100 100 100 99 95 94 86 84 84 78 71 69 60 51 45 49 75 91 88 86 94
72 75 80 86 90 86 92 91 87 86 86 83 85 88 90 94 99 100 100 100 97 93 89 80 77 72 71 72 70 55 70 68 61 90 95 96 88 89
74 78 73 76 75 80 96 97 91 84 81 79 79 77 83 93 98 100 100 100 95 94 89 77 73 70 76 74 78 77 93 89 75 73 94 98 99 90
83 82 80 76 78 81 94 99 96 91 84 82 76 69 68 79 85 86 97 100 100 92 86 82 74 74 84 82 87 92 95 82 78 74 94 96 96 96
89 87 87 83 79 80 84 96 93 93 91 81 77 76 67 62 62 66 76 92 99 98 88 86 68 73 70 88 86 89 94 95 81 85 97 96 98 98
97 95 98 96 88 79 74 87 98 94 92 84 80 78 68 58 60 61 60 67 78 86 100 98 76 62 66 69 86 80 96 87 79 79 94 96 95 94
99 99 98 98 94 86 78 66 72 90 84 80 81 82 80 63 59 65 70 77 98 81 75 75 69 63 60 66 77 79 85 77 80 78 77 85 92 92
99 99 99 98 96 92 86 80 78 83 81 76 79 83 90 89 79 83 76 97 99 97 96 75 71 68 66 69 67 70 73 84 67 75 80 74 70 68
97 98 95 94 93 90 88 81 75 76 77 80 85 87 91 92 93 98 97 94 97 95 95 100 79 79 74 62 63 68 77 77 66 67 69 78 71 59
99 99 94 95 94 94 92 90 83 80 80 82 80 81 85 98 100 98 100 96 96 94 95 94 93 93 94 95 76 62 84 69 79 84 73 69 68 55
100 100 99 97 95 94 94 95 94 94 92 83 74 74 84 92 99 99 97 95 96 94 97 98 96 93 92 86 79 68 62 85 72 78 75 72 73 62
100 100 99 100 99 97 93 92 94 95 100 96 82 79 82 92 95 97 96 95 96 96 98 96 87 81 92 86 79 64 45 46 68 67 78 87 85 77
100 100 100 100 100 100 100 100 100 100 100 100 99 98 98 98 95 94 94 96 93 94 95 87 88 92 98 91 88 74 74 64 54 50 66 64 63 78
100 100 100 100 100 100 100 100 100 100 100 99 99 100 100 100 100 98 95 94 92 95 96 98 97 99 100 96 89 87 85 85 71 58 56 48 43 45

GFSNE_925_rhum_120.txt.gz
RH
88 89 98 93 90 92 94 99 98 94 88 74 85 90 86 85 84 85 99 92 97 100 100 100 98 92 90 90 81 80 74 81 79 84 60 93 99 98
96 96 91 95 92 94 88 91 93 95 90 78 85 90 93 92 93 98 100 99 99 100 100 100 98 97 88 82 80 78 76 96 94 76 92 100 97 100
95 98 98 87 79 77 86 89 89 87 92 85 81 83 90 99 100 98 99 99 99 99 99 99 97 92 86 83 80 78 86 86 99 100 100 100 100 100
96 91 85 82 81 84 84 89 86 87 91 90 85 84 86 89 92 96 98 100 100 99 99 99 95 90 86 86 83 86 89 86 91 93 96 95 98 95
86 82 81 77 80 83 83 76 81 92 93 92 92 89 89 94 96 94 97 98 100 99 99 98 98 93 90 85 86 92 100 94 86 97 98 88 89 90
78 77 78 73 76 78 81 89 93 93 92 88 87 91 93 93 98 100 99 100 100 100 99 99 100 99 94 88 87 90 99 99 95 99 100 96 90 86
72 72 69 66 68 74 80 87 90 87 92 91 92 96 94 97 96 100 100 99 99 100 100 100 100 100 96 92 90 89 92 93 95 100 100 100 90 81
63 63 63 64 67 71 78 78 80 86 92 92 90 93 93 97 98 100 100 99 99 99 100 100 100 100 98 94 91 90 90 89 93 100 100 99 90 78
60 61 65 68 69 75 81 81 81 83 87 89 99 98 97 97 99 99 100 100 99 97 100 99 100 99 97 92 91 86 82 85 84 79 86 87 78 76
64 66 69 73 79 82 85 91 93 90 88 86 90 92 92 91 92 95 99 100 100 99 99 98 92 95 94 89 87 84 82 65 58 58 61 56 59 80
66 68 72 76 76 80 81 87 87 88 88 84 84 86 86 86 90 100 100 100 99 98 96 92 85 85 86 83 79 80 72 65 59 59 95 85 71 89
71 72 72 73 76 75 80 92 96 88 84 81 80 78 76 82 89 98 100 99 100 96 94 93 81 80 78 77 75 73 78 95 83 82 96 96 92 94
72 74 74 75 75 73 86 93 96 92 88 85 82 76 68 64 68 77 86 98 100 99 98 95 79 78 77 67 74 75 83 91 90 88 82 96 97 93
79 79 79 79 78 78 82 90 100 95 92 90 79 68 67 61 57 58 62 76 96 99 99 100 95 80 77 85 66 71 94 96 85 75 70 91 96 99
85 87 88 90 89 85 80 80 98 100 95 93 87 74 73 64 57 55 58 58 68 82 98 99 100 93 84 68 72 69 73 92 91 81 82 86 92 97
98 96 94 95 96 93 86 83 80 83 91 90 85 80 81 78 63 58 61 72 84 80 74 86 99 98 83 72 86 63 65 69 86 86 85 97 98 98
100 100 99 100 100 96 92 87 81 78 82 84 82 78 79 81 78 76 79 90 100 96 95 75 75 74 68 66 72 73 66 78 73 77 87 84 92 95
100 100 100 100 98 93 92 89 83 79 77 78 79 81 84 88 90 93 99 98 99 84 99 99 86 82 80 69 64 62 69 72 72 69 72 82 75 66
100 99 96 92 88 88 87 88 87 83 76 74 76 80 83 88 96 99 98 100 100 95 98 94 97 89 100 97 67 61 70 72 73 78 72 74 68 54
100 100 99 95 93 90 90 92 93 92 91 89 88 82 81 84 96 97 99 99 98 94 97 99 97 89 92 88 81 71 71 83 77 74 76 74 64 65
100 100 100 99 99 99 99 96 90 89 89 91 94 95 82 86 93 96 93 98 100 98 98 99 81 81 85 94 96 79 62 46 71 77 69 80 86 78
100 100 100 100 100 100 100 100 100 100 99 99 99 100 100 100 99 95 92 95 92 91 91 84 88 95 100 100 94 83 71 60 51 65 88 76 57 68
100 100 100 100 100 100 100 100 100 100 99 100 100 100 99 99 99 100 100 96 94 96 93 93 96 98 97 100 100 90 85 80 69 61 56 52 50 53

GFSNE_925_rhum_123.txt.gz
RH
93 96 96 94 89 82 84 85 87 94 90 91 92 91 91 91 90 85 94 99 93 88 99 98 98 99 91 87 82 75 69 68 81 64 76 72 66 97
96 100 96 91 84 90 91 92 93 92 92 84 91 93 91 87 99 99 99 99 100 100 100 100 100 98 93 85 78 72 68 76 88 69 69 82 76 98
95 91 92 91 94 85 85 86 86 87 93 89 89 86 84 84 88 96 97 98 100 99 100 99 100 97 92 87 82 74 71 85 87 91 93 98 100 100
87 92 95 97 82 78 83 86 87 85 86 91 90 85 85 87 90 93 89 88 95 100 98 99 99 97 94 87 82 75 78 92 89 86 92 100 100 100
77 96 94 86 79 82 84 87 91 89 87 88 89 85 85 86 93 99 100 99 100 99 100 99 100 98 93 88 80 77 80 92 90 98 90 97 96 93
97 92 84 80 72 79 82 79 79 84 87 89 88 88 90 89 91 90 98 100 99 99 99 99 100 100 96 88 82 80 86 92 90 99 100 94 92 95
87 82 79 76 74 78 75 74 81 88 87 90 90 93 96 96 96 95 97 99 96 98 99 99 100 100 100 94 88 83 85 96 96 98 100 100 96 91
79 78 76 72 74 74 69 73 76 84 88 90 90 88 89 91 93 97 99 100 98 94 100 99 99 100 99 97 93 89 88 89 95 94 100 99 93 88
70 66 67 66 65 64 68 73 75 78 79 83 88 91 95 92 92 93 96 100 99 97 99 99 100 99 99 99 95 92 88 88 89 90 96 100 98 90
61 61 62 66 67 68 73 78 82 85 85 83 84 85 87 90 92 94 100 100 100 100 100 99 96 97 99 98 95 93 89 83 76 79 77 78 86 86
68 68 67 66 71 77 78 83 90 88 87 85 82 84 86 85 93 100 100 100 99 99 99 99 92 89 88 89 91 90 88 85 73 62 66 74 69 79
71 71 74 72 76 79 74 78 84 86 88 86 82 80 78 79 86 99 100 100 100 99 97 97 90 85 81 82 83 82 82 84 83 67 70 93 80 85
70 72 73 75 76 73 71 77 82 89 88 85 85 84 78 72 70 74 81 95 100 99 99 96 87 83 82 70 71 75 75 74 90 81 82 96 88 92
72 72 73 74 75 73 74 78 88 96 93 91 89 84 73 68 64 61 60 65 82 98 99 99 99 87 93 86 71 69 72 79 89 83 78 80 95 92
80 77 77 78 79 79 79 79 87 100 98 96 93 89 74 71 69 56 57 60 59 71 84 100 100 99 93 92 72 70 62 74 82 91 78 73 87 90
90 88 86 87 89 90 89 84 82 91 93 98 92 88 82 82 78 66 61 70 77 70 72 76 100 100 100 98 88 79 65 59 64 94 87 79 83 91
100 100 100 100 98 97 95 90 85 84 79 81 91 87 81 80 81 77 78 91 90 94 89 74 81 88 91 86 79 74 76 69 60 68 93 85 92 97
100 100 100 100 100 100 98 94 93 88 81 81 85 83 80 81 83 89 98 100 100 93 79 100 87 86 81 68 65 64 61 62 63 68 70 91 80 78
100 100 100 100 100 100 100 97 88 85 83 79 77 76 78 82 88 93 96 99 98 99 90 100 100 99 96 96 63 65 72 68 70 83 76 75 78 60
100 100 100 100 100 100 100 100 87 88 88 84 80 83 84 84 88 96 91 94 99 100 98 94 100 100 98 86 85 81 78 82 79 80 80 76 72 68
100 100 100 100 100 100 100 100 95 92 93 92 90 89 90 92 92 94 99 92 97 100 99 98 88 85 97 99 98 89 75 70 58 74 79 84 86 81
100 100 100 100 100 100 100 100 100 100 99 98 96 95 97 100 99 98 90 94 94 94 95 85 89 92 100 99 99 100 87 74 62 56 80 83 67 78
99 100 100 100 100 100 100 100 100 100 100 100 100 100 100 100 98 99 99 100 99 95 90 90 92 99 98 100 100 100 100 94 85 72 70 64 53 61

GFSNE_925_rhum_126.txt.gz
RH
82 83 90 89 88 85 82 72 81 95 94 98 96 96 93 90 87 84 86 99 100 100 99 91 90 96 93 93 88 78 72 68 64 73 52 63 85 72
85 89 95 94 92 86 81 83 86 83 88 88 95 98 92 85 86 86 98 98 97 98 99 94 99 98 96 93 88 82 76 69 75 84 67 69 74 84
94 96 96 97 88 85 85 88 85 88 89 92 95 94 90 87 86 86 89 90 94 96 98 99 99 99 96 93 89 82 76 76 85 90 90 95 88 93
99 99 100 99 94 90 81 76 68 74 84 89 93 90 87 86 83 85 88 89 87 89 95 97 98 100 98 93 86 81 77 80 92 88 92 99 98 100
99 99 97 98 89 81 73 74 83 83 85 85 87 89 87 86 84 75 73 78 89 91 100 99 98 100 100 94 88 83 77 83 95 96 90 94 95 95
97 95 95 87 78 78 77 81 80 83 86 83 86 88 89 89 87 84 87 98 89 92 97 100 99 100 100 99 91 86 81 87 89 99 95 93 94 95
99 98 94 87 82 77 64 75 79 81 84 86 88 89 91 94 90 92 94 95 96 92 92 98 100 100 99 99 96 88 84 89 93 99 100 98 94 86
100 100 100 95 88 72 69 75 72 79 84 85 87 87 83 86 90 92 95 98 94 98 98 96 99 99 99 100 98 95 89 88 89 97 100 99 99 99
100 99 94 87 78 73 78 79 84 84 80 77 82 83 85 86 91 92 94 96 96 98 100 97 94 94 99 99 99 97 93 88 86 89 98 100 99 93
100 96 86 79 71 68 69 71 74 76 77 78 82 84 89 91 94 95 98 99 99 98 100 100 98 95 94 100 99 99 96 91 85 87 88 87 97 98
90 79 68 64 71 74 70 73 81 85 86 85 84 85 89 90 91 100 100 100 99 98 97 100 96 94 91 88 93 97 96 94 89 82 77 80 75 84
79 77 76 70 70 72 74 76 84 84 87 88 84 82 80 80 82 86 99 100 100 99 99 99 95 92 83 83 85 87 91 91 90 87 80 90 84 80
88 88 86 85 80 80 78 76 74 79 87 88 84 84 83 78 75 76 81 95 100 99 99 97 92 86 88 81 62 79 82 79 84 92 86 92 92 82
80 78 78 80 82 84 79 78 82 85 86 87 88 89 86 76 70 66 63 63 72 89 99 100 100 95 92 94 87 73 67 68 73 89 85 86 98 90
92 90 84 82 84 85 86 87 95 94 93 92 92 93 89 76 68 64 56 57 60 63 74 93 100 100 100 98 83 72 66 62 67 84 91 80 76 89
93 88 85 82 81 80 84 86 88 96 97 96 94 91 90 79 72 73 63 59 64 60 68 74 90 100 99 100 99 96 83 64 54 66 90 94 80 75
100 100 97 95 92 93 93 91 92 94 97 92 92 91 91 88 80 81 76 76 87 74 81 75 84 95 99 99 100 98 90 78 68 68 73 94 86 79
100 100 100 100 100 100 100 99 99 98 91 84 78 84 87 84 82 85 88 98 100 100 96 83 100 96 86 70 69 73 72 66 64 75 76 85 88 77
100 100 100 100 100 100 100 100 100 100 100 100 88 83 86 84 84 88 92 95 99 99 100 95 100 100 98 94 63 70 70 70 71 76 81 85 82 60
100 100 100 100 100 100 100 100 100 100 100 100 99 98 82 79 84 90 93 92 89 98 100 100 100 99 100 91 81 86 85 81 85 80 80 78 79 75
100 100 100 100 100 100 100 100 100 100 100 100 99 99 92 89 89 88 89 96 94 98 100 91 82 91 98 100 100 97 80 73 74 75 79 86 92 83
100 100 100 100 100 100 100 100 100 100 100 100 99 99 99 99 98 99 100 99 100 99 94 86 92 97 100 96 92 98 99 84 77 70 78 82 77 86
100 100 99 100 100 99 100 100 100 100 100 100 100 100 99 99 98 98 98 98 100 100 99 97 96 100 100 99 97 99 99 100 93 93 83 75 71 72